AAL25 KMCO-LIMC

Flight info

Callsign AAL25
Flight time 9h 5m
Altitude 33000
Route FATHE4 VIYAP Q87 JROSS Q135 RAPZZ PRONI PUNGO PHITZ DWSEN KW54A PREPI KB63C MONTK VITOL NANSO N55B RAFIN 4550N 4740N 4730N 4720N 4715N SEPAL UN470 LAPEX GALOF PECNO VALKU TIS MEBAK GIPNO BALSI GIGUS MEDAM LAPRI MOGBO TOP M135 ASTIG
Aircraft B77W/H-SDE1E2E3FGHIJ2J3J4J5M1RWXY/LB1D1

Departure

Time 2026-04-25 14:17
Airport Orlando International Airport (KMCO)

Arrival

Time 2026-04-25 23:23
Airport Milan Malpensa International Airport (LIMC)
Time Latitude Longitude Altitude Speed Heading
2026-04-25 13:26 28.42572 -81.31449 106 ft 0 kts 323°
2026-04-25 13:50 28.42561 -81.31439 106 ft 4 kts 323°
2026-04-25 13:50 28.42541 -81.31420 105 ft 4 kts 301°
2026-04-25 13:51 28.42536 -81.31394 104 ft 4 kts 258°
2026-04-25 13:51 28.42542 -81.31366 104 ft 4 kts 258°
2026-04-25 13:51 28.42548 -81.31336 106 ft 4 kts 258°
2026-04-25 13:51 28.42549 -81.31331 106 ft 0 kts 258°
2026-04-25 13:55 28.42548 -81.31336 106 ft 2 kts 257°
2026-04-25 13:55 28.42545 -81.31349 107 ft 2 kts 257°
2026-04-25 13:56 28.42543 -81.31358 108 ft 0 kts 252°
2026-04-25 13:56 28.42543 -81.31359 108 ft 0 kts 251°
2026-04-25 13:57 28.42534 -81.31369 107 ft 2 kts 219°
2026-04-25 13:57 28.42525 -81.31372 107 ft 2 kts 196°
2026-04-25 13:57 28.42505 -81.31366 107 ft 3 kts 153°
2026-04-25 13:57 28.42489 -81.31353 107 ft 3 kts 142°
2026-04-25 13:58 28.42470 -81.31335 107 ft 4 kts 139°
2026-04-25 13:58 28.42460 -81.31324 107 ft 0 kts 139°
2026-04-25 13:59 28.42459 -81.31323 107 ft 1 kts 139°
2026-04-25 14:00 28.42445 -81.31309 105 ft 5 kts 139°
2026-04-25 14:00 28.42393 -81.31288 106 ft 11 kts 174°
2026-04-25 14:00 28.42348 -81.31229 108 ft 11 kts 100°
2026-04-25 14:00 28.42335 -81.31145 105 ft 11 kts 100°
2026-04-25 14:01 28.42321 -81.31060 104 ft 11 kts 98°
2026-04-25 14:01 28.42317 -81.30975 105 ft 10 kts 89°
2026-04-25 14:01 28.42320 -81.30903 105 ft 9 kts 86°
2026-04-25 14:01 28.42325 -81.30832 105 ft 9 kts 84°
2026-04-25 14:02 28.42331 -81.30762 110 ft 9 kts 86°
2026-04-25 14:02 28.42337 -81.30665 111 ft 14 kts 86°
2026-04-25 14:02 28.42344 -81.30554 109 ft 14 kts 85°
2026-04-25 14:02 28.42347 -81.30517 111 ft 14 kts 85°
2026-04-25 14:03 28.42359 -81.30305 106 ft 17 kts 89°
2026-04-25 14:03 28.42360 -81.30169 108 ft 17 kts 89°
2026-04-25 14:03 28.42361 -81.30033 109 ft 17 kts 90°
2026-04-25 14:03 28.42362 -81.29900 108 ft 17 kts 90°
2026-04-25 14:04 28.42379 -81.29804 107 ft 12 kts 39°
2026-04-25 14:04 28.42459 -81.29794 107 ft 12 kts
2026-04-25 14:04 28.42540 -81.29794 107 ft 12 kts 360°
2026-04-25 14:04 28.42622 -81.29795 107 ft 12 kts 359°
2026-04-25 14:05 28.42700 -81.29797 108 ft 8 kts 359°
2026-04-25 14:05 28.42724 -81.29797 108 ft 2 kts
2026-04-25 14:05 28.42734 -81.29797 108 ft 2 kts
2026-04-25 14:05 28.42748 -81.29797 108 ft 4 kts
2026-04-25 14:06 28.42813 -81.29797 108 ft 11 kts 359°
2026-04-25 14:06 28.42889 -81.29798 108 ft 10 kts 359°
2026-04-25 14:06 28.42950 -81.29799 108 ft 7 kts 359°
2026-04-25 14:06 28.42998 -81.29799 108 ft 5 kts 359°
2026-04-25 14:07 28.43012 -81.29800 108 ft 1 kts 359°
2026-04-25 14:07 28.43032 -81.29800 108 ft 5 kts 359°
2026-04-25 14:07 28.43064 -81.29800 108 ft 5 kts 359°
2026-04-25 14:07 28.43097 -81.29801 108 ft 5 kts 359°
2026-04-25 14:08 28.43130 -81.29801 108 ft 4 kts 359°
2026-04-25 14:08 28.43142 -81.29801 108 ft 0 kts 359°
2026-04-25 14:09 28.43146 -81.29801 108 ft 2 kts 359°
2026-04-25 14:09 28.43152 -81.29801 108 ft 3 kts 359°
2026-04-25 14:10 28.43182 -81.29802 108 ft 2 kts 359°
2026-04-25 14:10 28.43199 -81.29802 108 ft 2 kts 359°
2026-04-25 14:10 28.43241 -81.29802 108 ft 11 kts 359°
2026-04-25 14:10 28.43316 -81.29803 108 ft 11 kts 359°
2026-04-25 14:11 28.43390 -81.29804 108 ft 8 kts 359°
2026-04-25 14:11 28.43426 -81.29804 108 ft 5 kts 359°
2026-04-25 14:11 28.43451 -81.29805 108 ft 3 kts 359°
2026-04-25 14:11 28.43472 -81.29805 108 ft 3 kts 359°
2026-04-25 14:12 28.43491 -81.29805 109 ft 3 kts 359°
2026-04-25 14:12 28.43507 -81.29805 109 ft 0 kts 360°
2026-04-25 14:12 28.43508 -81.29805 109 ft 1 kts 360°
2026-04-25 14:13 28.43523 -81.29803 109 ft 3 kts 12°
2026-04-25 14:13 28.43541 -81.29785 108 ft 5 kts 54°
2026-04-25 14:13 28.43550 -81.29740 108 ft 7 kts 89°
2026-04-25 14:13 28.43550 -81.29727 108 ft 0 kts 89°
2026-04-25 14:15 28.43550 -81.29725 108 ft 2 kts 89°
2026-04-25 14:15 28.43550 -81.29715 108 ft 6 kts 89°
2026-04-25 14:15 28.43547 -81.29609 109 ft 7 kts 116°
2026-04-25 14:15 28.43509 -81.29590 110 ft 6 kts 171°
2026-04-25 14:16 28.43486 -81.29588 110 ft 0 kts 178°
2026-04-25 14:16 28.43485 -81.29588 110 ft 1 kts 178°
2026-04-25 14:16 28.43408 -81.29586 109 ft 34 kts 179°
2026-04-25 14:16 28.42893 -81.29581 110 ft 113 kts 179°
2026-04-25 14:17 28.41855 -81.29570 109 ft 181 kts 179°
2026-04-25 14:17 28.40513 -81.29551 582 ft 193 kts 179°
2026-04-25 14:17 28.39140 -81.29498 1238 ft 199 kts 176°
2026-04-25 14:17 28.37806 -81.29103 1667 ft 208 kts 152°
2026-04-25 14:18 28.36557 -81.28149 1842 ft 228 kts 148°
2026-04-25 14:18 28.35170 -81.27094 2030 ft 248 kts 147°
2026-04-25 14:18 28.33802 -81.25883 2512 ft 257 kts 137°
2026-04-25 14:18 28.32520 -81.24442 3151 ft 262 kts 134°
2026-04-25 14:19 28.31272 -81.22914 3839 ft 263 kts 129°
2026-04-25 14:19 28.30427 -81.21054 4377 ft 270 kts 101°
2026-04-25 14:19 28.30374 -81.18929 5015 ft 271 kts 84°
2026-04-25 14:19 28.30693 -81.16825 5552 ft 273 kts 67°
2026-04-25 14:20 28.31820 -81.15146 6074 ft 276 kts 33°
2026-04-25 14:20 28.32382 -81.14777 6274 ft 276 kts 21°
2026-04-25 14:20 28.35480 -81.14922 7256 ft 275 kts 338°
2026-04-25 14:20 28.36673 -81.15412 7597 ft 277 kts 342°
2026-04-25 14:21 28.38538 -81.15995 8261 ft 278 kts 345°
2026-04-25 14:21 28.40427 -81.16523 8915 ft 280 kts 345°
2026-04-25 14:21 28.42329 -81.17047 9542 ft 283 kts 345°
2026-04-25 14:21 28.44880 -81.17755 10305 ft 287 kts 345°
2026-04-25 14:22 28.46217 -81.18129 10470 ft 300 kts 345°
2026-04-25 14:22 28.48286 -81.18710 10629 ft 320 kts 345°
2026-04-25 14:22 28.50513 -81.19338 10789 ft 341 kts 345°
2026-04-25 14:22 28.52888 -81.20008 10989 ft 359 kts 345°
2026-04-25 14:23 28.55362 -81.20706 11476 ft 369 kts 345°
2026-04-25 14:23 28.57876 -81.21415 12133 ft 374 kts 345°
2026-04-25 14:23 28.60420 -81.22133 12916 ft 377 kts 345°
2026-04-25 14:23 28.62946 -81.22846 13689 ft 379 kts 345°
2026-04-25 14:24 28.65522 -81.23575 14335 ft 383 kts 345°
2026-04-25 14:24 28.68127 -81.24313 14975 ft 387 kts 345°
2026-04-25 14:24 28.70761 -81.25059 15608 ft 391 kts 344°
2026-04-25 14:24 28.73417 -81.25813 16274 ft 395 kts 344°
2026-04-25 14:25 28.76063 -81.26563 16910 ft 399 kts 344°
2026-04-25 14:25 28.78775 -81.27332 17545 ft 403 kts 344°
2026-04-25 14:25 28.81520 -81.28112 18169 ft 407 kts 344°
2026-04-25 14:25 28.83349 -81.28606 18522 ft 411 kts 346°
2026-04-25 14:26 28.87173 -81.29178 19244 ft 417 kts 354°
2026-04-25 14:26 28.90082 -81.29383 19855 ft 419 kts 354°
2026-04-25 14:26 28.93004 -81.29604 20460 ft 421 kts 354°
2026-04-25 14:26 28.95898 -81.29842 21027 ft 424 kts 354°
2026-04-25 14:27 28.98846 -81.30095 21604 ft 427 kts 354°
2026-04-25 14:27 29.01820 -81.30392 22136 ft 430 kts 353°
2026-04-25 14:27 29.04802 -81.30737 22686 ft 432 kts 352°
2026-04-25 14:27 29.07812 -81.31086 23203 ft 435 kts 353°
2026-04-25 14:28 29.10837 -81.31428 23702 ft 438 kts 353°
2026-04-25 14:28 29.13898 -81.31697 24118 ft 441 kts 355°
2026-04-25 14:28 29.16981 -81.31880 24532 ft 444 kts 356°
2026-04-25 14:28 29.20038 -81.32034 24929 ft 447 kts 356°
2026-04-25 14:29 29.23156 -81.32190 25357 ft 450 kts 356°
2026-04-25 14:29 29.26297 -81.32357 25740 ft 453 kts 356°
2026-04-25 14:29 29.29465 -81.32536 26138 ft 455 kts 356°
2026-04-25 14:29 29.32642 -81.32722 26532 ft 458 kts 356°
2026-04-25 14:30 29.35828 -81.32914 26912 ft 460 kts 356°
2026-04-25 14:30 29.42266 -81.33304 27644 ft 465 kts 356°
2026-04-25 14:30 29.45507 -81.33500 27996 ft 468 kts 356°
2026-04-25 14:31 29.48770 -81.33697 28338 ft 470 kts 356°
2026-04-25 14:31 29.52045 -81.33895 28659 ft 473 kts 356°
2026-04-25 14:31 29.55308 -81.34092 28910 ft 476 kts 357°
2026-04-25 14:31 29.58635 -81.34293 28942 ft 480 kts 357°
2026-04-25 14:32 29.65281 -81.34694 28963 ft 475 kts 357°
2026-04-25 14:32 29.71884 -81.35075 28978 ft 476 kts 357°
2026-04-25 14:33 29.78538 -81.35452 28989 ft 485 kts 357°
2026-04-25 14:33 29.85294 -81.35838 28971 ft 484 kts 357°
2026-04-25 14:34 29.92005 -81.36223 28968 ft 482 kts 357°
2026-04-25 14:34 29.98698 -81.36608 28970 ft 481 kts 357°
2026-04-25 14:35 30.05389 -81.36994 28972 ft 481 kts 357°
2026-04-25 14:35 30.12049 -81.37378 28975 ft 482 kts 357°
2026-04-25 14:36 30.18773 -81.37767 28976 ft 483 kts 357°
2026-04-25 14:36 30.25468 -81.38154 28966 ft 484 kts 357°
2026-04-25 14:37 30.32251 -81.38547 28957 ft 485 kts 357°
2026-04-25 14:37 30.38954 -81.38936 28964 ft 485 kts 357°
2026-04-25 14:38 30.45707 -81.39329 28963 ft 484 kts 357°
2026-04-25 14:38 30.52442 -81.39699 28971 ft 484 kts 357°
2026-04-25 14:39 30.59134 -81.40050 28972 ft 484 kts 357°
2026-04-25 14:39 30.65875 -81.40406 28972 ft 484 kts 357°
2026-04-25 14:40 30.72598 -81.40765 28971 ft 484 kts 357°
2026-04-25 14:40 30.79325 -81.41126 28967 ft 484 kts 357°
2026-04-25 14:41 30.86058 -81.41488 28965 ft 484 kts 357°
2026-04-25 14:41 30.92785 -81.41849 28961 ft 484 kts 357°
2026-04-25 14:42 30.98384 -81.42151 28958 ft 484 kts 357°
2026-04-25 14:42 31.06196 -81.42572 28953 ft 484 kts 357°
2026-04-25 14:43 31.12929 -81.42936 28953 ft 483 kts 357°
2026-04-25 14:43 31.19621 -81.43293 28955 ft 483 kts 358°
2026-04-25 14:44 31.26288 -81.42449 28971 ft 483 kts 13°
2026-04-25 14:44 31.32607 -81.39749 28971 ft 484 kts 24°
2026-04-25 14:45 31.38697 -81.36344 28960 ft 485 kts 25°
2026-04-25 14:45 31.44795 -81.32970 28960 ft 485 kts 24°
2026-04-25 14:46 31.50886 -81.29648 28957 ft 485 kts 24°
2026-04-25 14:46 31.57018 -81.26310 28958 ft 485 kts 24°
2026-04-25 14:47 31.62112 -81.23530 28945 ft 484 kts 24°
2026-04-25 14:47 31.69213 -81.19648 28929 ft 483 kts 24°
2026-04-25 14:48 31.75309 -81.16312 28928 ft 483 kts 24°
2026-04-25 14:48 31.81405 -81.12971 28920 ft 482 kts 24°
2026-04-25 14:49 31.87486 -81.09633 28917 ft 482 kts 24°
2026-04-25 14:49 31.93528 -81.06310 28918 ft 482 kts 24°
2026-04-25 14:50 31.99623 -81.02955 28915 ft 483 kts 24°
2026-04-25 14:50 32.05707 -80.99573 28921 ft 483 kts 24°
2026-04-25 14:51 32.11785 -80.96165 28919 ft 483 kts 24°
2026-04-25 14:51 32.17835 -80.92770 28940 ft 484 kts 24°
2026-04-25 14:52 32.23919 -80.89355 28958 ft 483 kts 24°
2026-04-25 14:52 32.28963 -80.86520 28951 ft 483 kts 24°
2026-04-25 14:53 32.36062 -80.82525 28941 ft 482 kts 24°
2026-04-25 14:53 32.42118 -80.79111 28945 ft 481 kts 24°
2026-04-25 14:54 32.48130 -80.75717 28943 ft 481 kts 24°
2026-04-25 14:54 32.54176 -80.72299 28945 ft 481 kts 24°
2026-04-25 14:55 32.60238 -80.68865 28943 ft 482 kts 24°
2026-04-25 14:55 32.66283 -80.65428 28939 ft 482 kts 26°
2026-04-25 14:56 32.71858 -80.61053 28932 ft 485 kts 38°
2026-04-25 14:56 32.76655 -80.55395 28937 ft 487 kts 47°
2026-04-25 14:57 32.81091 -80.49293 28943 ft 488 kts 47°
2026-04-25 14:57 32.85542 -80.43184 28934 ft 488 kts 47°
2026-04-25 14:58 32.90017 -80.37090 28935 ft 489 kts 47°
2026-04-25 14:58 32.94496 -80.30999 28942 ft 489 kts 47°
2026-04-25 14:59 32.98958 -80.24927 28943 ft 489 kts 47°
2026-04-25 14:59 33.03445 -80.18813 28940 ft 489 kts 47°
2026-04-25 15:00 33.07891 -80.12734 28927 ft 489 kts 47°
2026-04-25 15:00 33.12366 -80.06615 28936 ft 490 kts 47°
2026-04-25 15:01 33.16841 -80.00477 28950 ft 490 kts 47°
2026-04-25 15:01 33.21322 -79.94321 28947 ft 490 kts 47°
2026-04-25 15:02 33.25800 -79.88160 28945 ft 490 kts 47°
2026-04-25 15:02 33.30272 -79.81998 28933 ft 490 kts 47°
2026-04-25 15:03 33.34708 -79.75874 28935 ft 491 kts 48°
2026-04-25 15:03 33.39187 -79.69682 28929 ft 492 kts 48°
2026-04-25 15:04 33.43664 -79.63483 28936 ft 492 kts 48°
2026-04-25 15:04 33.48154 -79.57253 28931 ft 493 kts 48°
2026-04-25 15:05 33.51879 -79.52076 28934 ft 493 kts 48°
2026-04-25 15:06 33.59328 -79.41700 28948 ft 494 kts 48°
2026-04-25 15:06 33.63086 -79.36454 28929 ft 495 kts 48°
2026-04-25 15:07 33.67543 -79.30224 28932 ft 495 kts 49°
2026-04-25 15:07 33.72036 -79.23937 28920 ft 495 kts 49°
2026-04-25 15:08 33.76526 -79.17642 28944 ft 495 kts 48°
2026-04-25 15:08 33.81003 -79.11353 28940 ft 495 kts 49°
2026-04-25 15:09 33.85465 -79.05075 28960 ft 495 kts 49°
2026-04-25 15:09 33.92191 -78.95588 28930 ft 496 kts 49°
2026-04-25 15:10 33.96666 -78.89261 28938 ft 496 kts 49°
2026-04-25 15:11 34.03352 -78.79788 28935 ft 496 kts 49°
2026-04-25 15:11 34.07825 -78.73441 28932 ft 496 kts 49°
2026-04-25 15:12 34.14539 -78.63886 28937 ft 496 kts 49°
2026-04-25 15:12 34.18249 -78.58592 28939 ft 496 kts 49°
2026-04-25 15:13 34.25366 -78.47699 28955 ft 497 kts 57°
2026-04-25 15:14 34.28501 -78.40231 28950 ft 499 kts 65°
2026-04-25 15:14 34.31353 -78.32620 28926 ft 499 kts 64°
2026-04-25 15:15 34.34253 -78.24968 28920 ft 500 kts 64°
2026-04-25 15:15 34.37175 -78.17318 28918 ft 501 kts 64°
2026-04-25 15:15 34.38652 -78.13457 29067 ft 504 kts 64°
2026-04-25 15:16 34.40103 -78.09657 29428 ft 504 kts 64°
2026-04-25 15:16 34.41567 -78.05815 29889 ft 501 kts 64°
2026-04-25 15:16 34.44471 -77.98174 30677 ft 497 kts 64°
2026-04-25 15:17 34.47356 -77.90568 31257 ft 496 kts 64°
2026-04-25 15:17 34.48795 -77.86768 31540 ft 496 kts 64°
2026-04-25 15:17 34.50239 -77.82948 31838 ft 495 kts 64°
2026-04-25 15:18 34.51673 -77.79152 32141 ft 495 kts 64°
2026-04-25 15:18 34.54567 -77.71650 32672 ft 493 kts 60°
2026-04-25 15:18 34.56369 -77.68108 32815 ft 494 kts 53°
2026-04-25 15:19 34.60005 -77.62750 32902 ft 494 kts 44°
2026-04-25 15:19 34.65849 -77.56102 32927 ft 490 kts 41°
2026-04-25 15:20 34.70841 -77.50471 32928 ft 489 kts 42°
2026-04-25 15:20 34.75769 -77.44842 32942 ft 488 kts 42°
2026-04-25 15:21 34.80701 -77.39159 32944 ft 488 kts 42°
2026-04-25 15:21 34.85639 -77.33456 32942 ft 489 kts 42°
2026-04-25 15:22 34.90588 -77.27732 32918 ft 491 kts 42°
2026-04-25 15:22 34.95526 -77.22013 32931 ft 492 kts 42°
2026-04-25 15:23 35.00493 -77.16249 32925 ft 493 kts 42°
2026-04-25 15:23 35.05458 -77.10481 32933 ft 493 kts 43°
2026-04-25 15:24 35.10424 -77.04699 32929 ft 493 kts 42°
2026-04-25 15:24 35.14552 -76.99884 32933 ft 493 kts 42°
2026-04-25 15:25 35.20317 -76.93153 32915 ft 493 kts 42°
2026-04-25 15:25 35.25280 -76.87343 32910 ft 493 kts 43°
2026-04-25 15:26 35.30216 -76.81552 32915 ft 493 kts 42°
2026-04-25 15:26 35.35173 -76.75732 32903 ft 493 kts 42°
2026-04-25 15:27 35.40118 -76.69914 32901 ft 492 kts 43°
2026-04-25 15:28 35.47517 -76.61186 32910 ft 491 kts 43°
2026-04-25 15:28 35.52423 -76.55385 32899 ft 492 kts 42°
2026-04-25 15:29 35.57353 -76.49545 32910 ft 493 kts 42°
2026-04-25 15:29 35.62424 -76.43868 32896 ft 492 kts 35°
2026-04-25 15:30 35.68040 -76.39023 32900 ft 492 kts 32°
2026-04-25 15:30 35.73660 -76.34280 32904 ft 493 kts 32°
2026-04-25 15:31 35.79299 -76.29457 32900 ft 494 kts 32°
2026-04-25 15:31 35.84931 -76.24596 32895 ft 494 kts 32°
2026-04-25 15:32 35.90563 -76.19720 32896 ft 494 kts 32°
2026-04-25 15:32 35.96197 -76.14835 32901 ft 494 kts 32°
2026-04-25 15:33 36.04614 -76.07526 32890 ft 494 kts 32°
2026-04-25 15:33 36.10235 -76.02634 32896 ft 493 kts 32°
2026-04-25 15:34 36.15812 -75.97771 32895 ft 492 kts 32°
2026-04-25 15:34 36.19555 -75.94502 32895 ft 492 kts 32°
2026-04-25 15:35 36.29866 -75.85779 32887 ft 490 kts 27°
2026-04-25 15:36 36.38788 -75.79572 32909 ft 489 kts 25°
2026-04-25 15:36 36.44707 -75.75466 32905 ft 490 kts 26°
2026-04-25 15:37 36.50657 -75.71272 32903 ft 490 kts 26°
2026-04-25 15:37 36.56569 -75.67073 32892 ft 490 kts 26°
2026-04-25 15:38 36.62497 -75.62853 32898 ft 489 kts 26°
2026-04-25 15:38 36.68376 -75.58664 32890 ft 489 kts 26°
2026-04-25 15:39 36.74284 -75.54449 32900 ft 489 kts 26°
2026-04-25 15:39 36.80202 -75.50220 32907 ft 489 kts 26°
2026-04-25 15:40 36.84116 -75.47418 32905 ft 490 kts 26°
2026-04-25 15:40 36.92001 -75.41764 32911 ft 490 kts 26°
2026-04-25 15:41 36.97925 -75.37507 32904 ft 490 kts 26°
2026-04-25 15:41 37.03837 -75.33250 32920 ft 490 kts 26°
2026-04-25 15:42 37.09748 -75.28987 32907 ft 490 kts 25°
2026-04-25 15:42 37.15624 -75.24741 32911 ft 490 kts 25°
2026-04-25 15:43 37.21535 -75.20462 32917 ft 490 kts 25°
2026-04-25 15:43 37.27444 -75.16177 32933 ft 490 kts 25°
2026-04-25 15:44 37.33365 -75.11875 32924 ft 491 kts 25°
2026-04-25 15:44 37.39287 -75.07565 32927 ft 492 kts 25°
2026-04-25 15:45 37.45180 -75.03267 32939 ft 492 kts 25°
2026-04-25 15:45 37.49145 -75.00371 32932 ft 491 kts 25°
2026-04-25 15:46 37.57010 -74.94614 32935 ft 490 kts 25°
2026-04-25 15:46 37.62912 -74.90290 32937 ft 489 kts 25°
2026-04-25 15:47 37.68874 -74.86297 32955 ft 487 kts 22°
2026-04-25 15:47 37.74931 -74.82440 32940 ft 487 kts 21°
2026-04-25 15:48 37.80992 -74.78564 32950 ft 488 kts 21°
2026-04-25 15:48 37.87042 -74.74654 32951 ft 488 kts 22°
2026-04-25 15:49 37.93102 -74.70714 32960 ft 489 kts 21°
2026-04-25 15:49 37.99140 -74.66780 32957 ft 490 kts 21°
2026-04-25 15:50 38.05216 -74.62817 32967 ft 491 kts 21°
2026-04-25 15:50 38.11296 -74.58843 32992 ft 491 kts 21°
2026-04-25 15:51 38.15334 -74.56200 32978 ft 491 kts 21°
2026-04-25 15:51 38.23426 -74.50893 32981 ft 492 kts 21°
2026-04-25 15:52 38.28489 -74.47567 32991 ft 492 kts 21°
2026-04-25 15:52 38.35568 -74.42906 33001 ft 492 kts 21°
2026-04-25 15:53 38.40668 -74.39542 32998 ft 492 kts 21°
2026-04-25 15:53 38.46704 -74.35553 33017 ft 492 kts 21°
2026-04-25 15:54 38.52785 -74.31527 33020 ft 491 kts 21°
2026-04-25 15:54 38.58850 -74.27504 33009 ft 490 kts 21°
2026-04-25 15:55 38.64913 -74.23475 33016 ft 489 kts 21°
2026-04-25 15:55 38.70913 -74.19479 33020 ft 489 kts 21°
2026-04-25 15:56 38.76966 -74.15442 33037 ft 489 kts 21°
2026-04-25 15:56 38.83018 -74.11397 33032 ft 489 kts 21°
2026-04-25 15:57 38.89024 -74.07374 33034 ft 490 kts 21°
2026-04-25 15:57 38.95066 -74.03319 33055 ft 490 kts 21°
2026-04-25 15:58 39.01071 -73.99131 33046 ft 495 kts 26°
2026-04-25 15:58 39.06754 -73.94069 33044 ft 497 kts 28°
2026-04-25 15:59 39.12390 -73.88895 33054 ft 497 kts 28°
2026-04-25 15:59 39.18034 -73.83753 33067 ft 497 kts 28°
2026-04-25 16:00 39.22735 -73.79496 33063 ft 496 kts 28°
2026-04-25 16:00 39.29307 -73.73544 33065 ft 496 kts 28°
2026-04-25 16:01 39.34959 -73.68413 33083 ft 496 kts 28°
2026-04-25 16:01 39.40613 -73.63267 33086 ft 496 kts 28°
2026-04-25 16:02 39.46252 -73.58122 33086 ft 495 kts 28°
2026-04-25 16:02 39.51850 -73.53006 33079 ft 494 kts 28°
2026-04-25 16:03 39.57474 -73.47854 33092 ft 493 kts 28°
2026-04-25 16:03 39.63049 -73.42739 33087 ft 493 kts 28°
2026-04-25 16:04 39.68644 -73.37594 33088 ft 493 kts 28°
2026-04-25 16:04 39.74235 -73.32442 33103 ft 493 kts 28°
2026-04-25 16:05 39.79727 -73.27023 33099 ft 500 kts 35°
2026-04-25 16:05 39.84459 -73.20330 33088 ft 511 kts 47°
2026-04-25 16:06 39.86551 -73.16575 33119 ft 512 kts 48°
2026-04-25 16:06 39.90670 -73.08996 33111 ft 512 kts 48°
2026-04-25 16:07 39.94775 -73.01477 33110 ft 512 kts 47°
2026-04-25 16:07 39.98925 -72.93941 33126 ft 511 kts 47°
2026-04-25 16:08 40.03081 -72.86410 33122 ft 511 kts 47°
2026-04-25 16:08 40.05163 -72.82631 33266 ft 513 kts 47°
2026-04-25 16:08 40.07239 -72.78855 33631 ft 510 kts 47°
2026-04-25 16:08 40.09300 -72.75097 34043 ft 506 kts 47°
2026-04-25 16:09 40.11317 -72.71411 34391 ft 503 kts 47°
2026-04-25 16:09 40.13348 -72.67699 34693 ft 501 kts 47°
2026-04-25 16:09 40.15375 -72.63994 34914 ft 500 kts 47°
2026-04-25 16:09 40.17403 -72.60286 35038 ft 502 kts 47°
2026-04-25 16:10 40.19437 -72.56563 35102 ft 504 kts 47°
2026-04-25 16:10 40.23505 -72.49096 35144 ft 502 kts 47°
2026-04-25 16:11 40.27525 -72.41687 35138 ft 497 kts 47°
2026-04-25 16:11 40.31505 -72.34346 35135 ft 495 kts 47°
2026-04-25 16:12 40.35487 -72.26987 35139 ft 495 kts 47°
2026-04-25 16:12 40.39473 -72.19601 35166 ft 496 kts 47°
2026-04-25 16:13 40.43449 -72.12215 35147 ft 498 kts 47°
2026-04-25 16:13 40.47441 -72.04780 35140 ft 499 kts 47°
2026-04-25 16:14 40.51106 -71.96913 35137 ft 511 kts 57°
2026-04-25 16:14 40.53906 -71.88266 35157 ft 515 kts 60°
2026-04-25 16:15 40.56627 -71.79600 35144 ft 516 kts 60°
2026-04-25 16:15 40.59402 -71.70887 35149 ft 515 kts 59°
2026-04-25 16:16 40.62178 -71.62243 35150 ft 515 kts 59°
2026-04-25 16:16 40.64962 -71.53558 35171 ft 515 kts 59°
2026-04-25 16:17 40.67742 -71.44849 35159 ft 514 kts 59°
2026-04-25 16:17 40.70502 -71.36165 35153 ft 512 kts 59°
2026-04-25 16:18 40.73245 -71.27511 35143 ft 510 kts 59°
2026-04-25 16:18 40.75975 -71.18871 35150 ft 509 kts 59°
2026-04-25 16:19 40.78672 -71.10310 35148 ft 508 kts 59°
2026-04-25 16:19 40.81380 -71.01677 35147 ft 509 kts 60°
2026-04-25 16:20 40.84951 -70.88359 35148 ft 514 kts 63°
2026-04-25 16:21 40.88381 -70.74957 35148 ft 514 kts 63°
2026-04-25 16:21 40.90692 -70.65995 35143 ft 514 kts 62°
2026-04-25 16:22 40.92994 -70.57082 35140 ft 514 kts 63°
2026-04-25 16:22 40.95299 -70.48125 35152 ft 514 kts 62°
2026-04-25 16:23 40.97595 -70.39168 35138 ft 513 kts 62°
2026-04-25 16:23 40.99877 -70.30224 35137 ft 513 kts 62°
2026-04-25 16:24 41.02139 -70.21330 35138 ft 512 kts 62°
2026-04-25 16:24 41.04411 -70.12360 35151 ft 512 kts 62°
2026-04-25 16:25 41.06669 -70.03414 35145 ft 511 kts 62°
2026-04-25 16:25 41.08906 -69.94518 35145 ft 511 kts 62°
2026-04-25 16:26 41.11149 -69.85567 35169 ft 511 kts 62°
2026-04-25 16:26 41.13385 -69.76609 35148 ft 511 kts 62°
2026-04-25 16:27 41.15610 -69.67658 35141 ft 511 kts 62°
2026-04-25 16:27 41.17821 -69.58733 35174 ft 511 kts 62°
2026-04-25 16:28 41.20039 -69.49744 35170 ft 512 kts 61°
2026-04-25 16:28 41.22250 -69.40748 35142 ft 511 kts 62°
2026-04-25 16:29 41.24446 -69.31775 35132 ft 510 kts 62°
2026-04-25 16:29 41.26621 -69.22856 35137 ft 509 kts 62°
2026-04-25 16:30 41.28799 -69.13893 35151 ft 509 kts 61°
2026-04-25 16:30 41.30970 -69.04928 35133 ft 508 kts 61°
2026-04-25 16:31 41.33125 -68.95985 35128 ft 507 kts 62°
2026-04-25 16:31 41.35256 -68.87110 35128 ft 506 kts 62°
2026-04-25 16:32 41.37392 -68.78183 35129 ft 505 kts 61°
2026-04-25 16:32 41.39516 -68.69271 35123 ft 504 kts 61°
2026-04-25 16:33 41.41633 -68.60353 35134 ft 504 kts 61°
2026-04-25 16:33 41.43740 -68.51447 35149 ft 503 kts 61°
2026-04-25 16:34 41.45830 -68.42576 35120 ft 503 kts 61°
2026-04-25 16:34 41.47922 -68.33658 35113 ft 504 kts 61°
2026-04-25 16:35 41.50010 -68.24723 35130 ft 504 kts 61°
2026-04-25 16:35 41.52080 -68.15834 35124 ft 504 kts 61°
2026-04-25 16:36 41.54158 -68.06879 35108 ft 506 kts 62°
2026-04-25 16:36 41.56235 -67.97885 35107 ft 507 kts 62°
2026-04-25 16:37 41.58312 -67.88855 35103 ft 508 kts 62°
2026-04-25 16:37 41.60375 -67.79849 35118 ft 509 kts 62°
2026-04-25 16:38 41.62445 -67.70773 35123 ft 510 kts 62°
2026-04-25 16:38 41.64499 -67.61731 35109 ft 511 kts 62°
2026-04-25 16:39 41.66556 -67.52639 35133 ft 511 kts 62°
2026-04-25 16:39 41.68266 -67.45054 35115 ft 512 kts 62°
2026-04-25 16:40 41.70312 -67.35937 35096 ft 511 kts 62°
2026-04-25 16:40 41.72351 -67.26819 35101 ft 511 kts 62°
2026-04-25 16:41 41.74386 -67.17685 35117 ft 511 kts 63°
2026-04-25 16:41 41.77407 -67.04054 35089 ft 511 kts 63°
2026-04-25 16:42 41.79698 -66.95121 35106 ft 500 kts 57°
2026-04-25 16:42 41.82369 -66.86521 35100 ft 500 kts 56°
2026-04-25 16:43 41.85059 -66.77902 35092 ft 501 kts 57°
2026-04-25 16:43 41.87717 -66.69250 35075 ft 502 kts 57°
2026-04-25 16:44 41.90354 -66.60570 35072 ft 502 kts 57°
2026-04-25 16:44 41.92987 -66.51862 35079 ft 503 kts 58°
2026-04-25 16:45 41.95598 -66.43205 35077 ft 503 kts 58°
2026-04-25 16:45 41.98218 -66.34487 35062 ft 503 kts 58°
2026-04-25 16:46 42.00832 -66.25763 35062 ft 503 kts 58°
2026-04-25 16:46 42.03006 -66.18492 35062 ft 503 kts 59°
2026-04-25 16:47 42.06034 -66.08323 35059 ft 502 kts 60°
2026-04-25 16:47 42.08620 -65.99607 35052 ft 501 kts 60°
2026-04-25 16:48 42.11201 -65.90878 35072 ft 501 kts 60°
2026-04-25 16:48 42.13750 -65.82142 35039 ft 500 kts 61°
2026-04-25 16:49 42.16295 -65.73482 35029 ft 499 kts 60°
2026-04-25 16:49 42.18872 -65.64773 35034 ft 499 kts 60°
2026-04-25 16:50 42.21418 -65.56072 35042 ft 499 kts 61°
2026-04-25 16:50 42.23955 -65.47333 35030 ft 499 kts 62°
2026-04-25 16:51 42.26484 -65.38592 35029 ft 500 kts 62°
2026-04-25 16:51 42.28582 -65.31327 35024 ft 500 kts 62°
2026-04-25 16:52 42.31520 -65.21123 35035 ft 499 kts 63°
2026-04-25 16:52 42.34028 -65.12374 35015 ft 498 kts 63°
2026-04-25 16:53 42.37753 -64.99329 35019 ft 496 kts 63°
2026-04-25 16:54 42.40232 -64.90612 35011 ft 495 kts 63°
2026-04-25 16:54 42.42699 -64.81904 35002 ft 494 kts 63°
2026-04-25 16:55 42.45139 -64.73266 34996 ft 493 kts 63°
2026-04-25 16:55 42.47583 -64.64582 34992 ft 493 kts 64°
2026-04-25 16:56 42.50024 -64.55881 34995 ft 493 kts 64°
2026-04-25 16:56 42.52443 -64.47228 34991 ft 494 kts 64°
2026-04-25 16:57 42.54873 -64.38500 34990 ft 495 kts 64°
2026-04-25 16:57 42.57297 -64.29767 34981 ft 495 kts 64°
2026-04-25 16:58 42.59719 -64.21009 34991 ft 496 kts 65°
2026-04-25 16:58 42.62142 -64.12217 34982 ft 497 kts 65°
2026-04-25 16:59 42.64560 -64.03411 34971 ft 497 kts 65°
2026-04-25 16:59 42.66969 -63.94603 34969 ft 497 kts 65°
2026-04-25 17:00 42.69374 -63.85783 34975 ft 497 kts 65°
2026-04-25 17:00 42.71758 -63.77006 34966 ft 497 kts 65°
2026-04-25 17:01 42.74148 -63.68178 34963 ft 496 kts 65°
2026-04-25 17:01 42.76526 -63.59361 34960 ft 495 kts 66°
2026-04-25 17:02 42.78888 -63.50568 34947 ft 494 kts 66°
2026-04-25 17:02 42.81228 -63.41829 34950 ft 492 kts 66°
2026-04-25 17:03 42.83562 -63.33081 34938 ft 490 kts 66°
2026-04-25 17:03 42.85880 -63.24363 34936 ft 488 kts 66°
2026-04-25 17:04 42.88173 -63.15707 34939 ft 487 kts 66°
2026-04-25 17:04 42.90473 -63.06991 34948 ft 488 kts 66°
2026-04-25 17:05 42.92765 -62.98275 34921 ft 487 kts 66°
2026-04-25 17:05 42.96169 -62.85283 34923 ft 486 kts 66°
2026-04-25 17:06 42.98435 -62.76586 34912 ft 486 kts 66°
2026-04-25 17:06 43.00691 -62.67895 34920 ft 485 kts 67°
2026-04-25 17:07 43.02945 -62.59183 34906 ft 486 kts 67°
2026-04-25 17:07 43.05196 -62.50452 34911 ft 486 kts 67°
2026-04-25 17:08 43.07422 -62.41786 34897 ft 486 kts 67°
2026-04-25 17:08 43.09656 -62.33052 34894 ft 486 kts 67°
2026-04-25 17:09 43.11885 -62.24310 34884 ft 486 kts 67°
2026-04-25 17:09 43.14109 -62.15552 34880 ft 486 kts 67°
2026-04-25 17:10 43.16325 -62.06795 34874 ft 486 kts 67°
2026-04-25 17:10 43.18531 -61.98046 34877 ft 486 kts 67°
2026-04-25 17:11 43.20723 -61.89318 34861 ft 486 kts 67°
2026-04-25 17:11 43.22920 -61.80536 34861 ft 486 kts 68°
2026-04-25 17:12 43.25110 -61.71751 34854 ft 486 kts 68°
2026-04-25 17:12 43.27275 -61.63030 34849 ft 486 kts 68°
2026-04-25 17:13 43.28729 -61.57159 34853 ft 486 kts 68°
2026-04-25 17:13 43.31617 -61.45449 34859 ft 486 kts 68°
2026-04-25 17:14 43.33779 -61.36641 34835 ft 486 kts 68°
2026-04-25 17:14 43.35937 -61.27819 34830 ft 486 kts 68°
2026-04-25 17:15 43.38084 -61.19004 34826 ft 485 kts 68°
2026-04-25 17:15 43.40206 -61.10262 34837 ft 485 kts 68°
2026-04-25 17:16 43.42338 -61.01441 34815 ft 485 kts 68°
2026-04-25 17:16 43.44461 -60.92624 34813 ft 485 kts 68°
2026-04-25 17:17 43.46583 -60.83779 34813 ft 485 kts 68°
2026-04-25 17:17 43.48679 -60.75008 34809 ft 485 kts 68°
2026-04-25 17:18 43.50784 -60.66160 34802 ft 485 kts 68°
2026-04-25 17:18 43.52881 -60.57317 34791 ft 485 kts 69°
2026-04-25 17:19 43.54967 -60.48482 34789 ft 485 kts 69°
2026-04-25 17:19 43.57039 -60.39674 34783 ft 485 kts 68°
2026-04-25 17:20 43.59114 -60.30816 34796 ft 485 kts 69°
2026-04-25 17:20 43.61183 -60.21947 34774 ft 485 kts 69°
2026-04-25 17:21 43.62902 -60.14553 34781 ft 485 kts 69°
2026-04-25 17:21 43.65298 -60.04206 34764 ft 486 kts 69°
2026-04-25 17:22 43.66671 -59.98254 34763 ft 486 kts 69°
2026-04-25 17:22 43.69053 -59.87892 34764 ft 486 kts 69°
2026-04-25 17:23 43.71092 -59.78979 34746 ft 486 kts 69°
2026-04-25 17:23 43.73109 -59.70128 34761 ft 486 kts 69°
2026-04-25 17:24 43.75139 -59.61186 34732 ft 486 kts 69°
2026-04-25 17:24 43.77156 -59.52262 34741 ft 486 kts 70°
2026-04-25 17:25 43.79169 -59.43320 34728 ft 486 kts 70°
2026-04-25 17:25 43.81161 -59.34436 34724 ft 486 kts 70°
2026-04-25 17:26 43.83157 -59.25492 34721 ft 486 kts 70°
2026-04-25 17:26 43.85148 -59.16540 34734 ft 486 kts 70°
2026-04-25 17:27 43.87121 -59.07625 34714 ft 486 kts 70°
2026-04-25 17:27 43.88769 -59.00157 34709 ft 487 kts 70°
2026-04-25 17:28 43.91067 -58.89692 34704 ft 487 kts 70°
2026-04-25 17:28 43.93035 -58.80690 34702 ft 487 kts 70°
2026-04-25 17:29 43.94996 -58.71683 34713 ft 488 kts 70°
2026-04-25 17:29 43.96954 -58.62648 34691 ft 488 kts 70°
2026-04-25 17:30 43.98907 -58.53597 34693 ft 489 kts 70°
2026-04-25 17:30 44.00842 -58.44597 34682 ft 489 kts 70°
2026-04-25 17:31 44.02780 -58.35538 34679 ft 489 kts 70°
2026-04-25 17:31 44.04712 -58.26468 34684 ft 489 kts 70°
2026-04-25 17:32 44.06639 -58.17383 34668 ft 490 kts 70°
2026-04-25 17:32 44.08558 -58.08296 34662 ft 490 kts 70°
2026-04-25 17:33 44.10457 -57.99263 34670 ft 489 kts 71°
2026-04-25 17:33 44.12361 -57.90167 34650 ft 489 kts 71°
2026-04-25 17:34 44.14258 -57.81062 34649 ft 489 kts 71°
2026-04-25 17:34 44.16143 -57.71980 34639 ft 488 kts 71°
2026-04-25 17:35 44.18021 -57.62885 34641 ft 488 kts 71°
2026-04-25 17:35 44.19890 -57.53796 34639 ft 488 kts 71°
2026-04-25 17:36 44.21750 -57.44709 34637 ft 488 kts 71°
2026-04-25 17:36 44.23597 -57.35648 34643 ft 488 kts 71°
2026-04-25 17:37 44.25443 -57.26545 34622 ft 488 kts 71°
2026-04-25 17:37 44.27285 -57.17425 34619 ft 488 kts 71°
2026-04-25 17:38 44.28811 -57.09839 34605 ft 488 kts 71°
2026-04-25 17:38 44.30945 -56.99174 34615 ft 488 kts 71°
2026-04-25 17:39 44.32756 -56.90084 34607 ft 488 kts 71°
2026-04-25 17:39 44.34573 -56.80920 34601 ft 488 kts 71°
2026-04-25 17:40 44.36381 -56.71759 34590 ft 489 kts 71°
2026-04-25 17:40 44.38180 -56.62599 34600 ft 489 kts 72°
2026-04-25 17:41 44.39964 -56.53474 34588 ft 489 kts 71°
2026-04-25 17:41 44.41757 -56.44258 34575 ft 490 kts 71°
2026-04-25 17:42 44.43533 -56.35083 34570 ft 490 kts 71°
2026-04-25 17:42 44.45312 -56.25855 34561 ft 490 kts 72°
2026-04-25 17:43 44.47082 -56.16627 34577 ft 490 kts 71°
2026-04-25 17:43 44.48823 -56.07445 34552 ft 491 kts 73°
2026-04-25 17:44 44.50003 -55.97972 34555 ft 493 kts 78°
2026-04-25 17:44 44.50996 -55.88521 34545 ft 493 kts 78°
2026-04-25 17:45 44.51669 -55.82148 34540 ft 493 kts 78°
2026-04-25 17:45 44.53032 -55.69472 34548 ft 493 kts 78°
2026-04-25 17:46 44.54062 -55.59939 34534 ft 494 kts 78°
2026-04-25 17:46 44.55079 -55.50456 34523 ft 495 kts 78°
2026-04-25 17:47 44.56094 -55.40897 34519 ft 495 kts 78°
2026-04-25 17:47 44.57099 -55.31340 34519 ft 495 kts 78°
2026-04-25 17:48 44.58587 -55.17049 34518 ft 496 kts 78°
2026-04-25 17:49 44.59574 -55.07474 34504 ft 497 kts 79°
2026-04-25 17:49 44.60555 -54.97865 34495 ft 497 kts 79°
2026-04-25 17:50 44.61531 -54.88229 34490 ft 497 kts 79°
2026-04-25 17:50 44.62492 -54.78667 34484 ft 498 kts 79°
2026-04-25 17:51 44.63453 -54.69005 34486 ft 498 kts 79°
2026-04-25 17:51 44.64406 -54.59354 34479 ft 499 kts 79°
2026-04-25 17:52 44.65346 -54.49745 34457 ft 499 kts 79°
2026-04-25 17:52 44.66284 -54.40063 34460 ft 500 kts 79°
2026-04-25 17:53 44.67216 -54.30359 34460 ft 501 kts 79°
2026-04-25 17:53 44.68140 -54.20656 34452 ft 501 kts 80°
2026-04-25 17:54 44.69057 -54.10935 34448 ft 501 kts 80°
2026-04-25 17:54 44.69959 -54.01274 34446 ft 501 kts 80°
2026-04-25 17:55 44.70860 -53.91544 34436 ft 501 kts 80°
2026-04-25 17:55 44.71753 -53.81803 34426 ft 501 kts 80°
2026-04-25 17:56 44.72630 -53.72138 34423 ft 501 kts 80°
2026-04-25 17:56 44.73508 -53.62380 34426 ft 502 kts 81°
2026-04-25 17:57 44.74376 -53.52630 34411 ft 502 kts 81°
2026-04-25 17:57 44.75236 -53.42871 34403 ft 503 kts 81°
2026-04-25 17:58 44.76090 -53.33112 34411 ft 503 kts 81°
2026-04-25 17:58 44.76929 -53.23395 34400 ft 504 kts 81°
2026-04-25 17:59 44.77769 -53.13570 34403 ft 505 kts 81°
2026-04-25 17:59 44.78600 -53.03743 34388 ft 505 kts 81°
2026-04-25 18:00 44.79418 -52.93982 34388 ft 505 kts 81°
2026-04-25 18:00 44.80233 -52.84148 34392 ft 505 kts 81°
2026-04-25 18:01 44.81043 -52.74281 34396 ft 506 kts 81°
2026-04-25 18:01 44.81838 -52.64480 34393 ft 506 kts 81°
2026-04-25 18:02 44.82629 -52.54617 34380 ft 505 kts 81°
2026-04-25 18:02 44.83409 -52.44789 34373 ft 504 kts 81°
2026-04-25 18:03 44.84176 -52.35025 34356 ft 504 kts 82°
2026-04-25 18:03 44.84939 -52.25197 34364 ft 504 kts 82°
2026-04-25 18:04 44.85693 -52.15374 34362 ft 504 kts 82°
2026-04-25 18:04 44.86437 -52.05568 34368 ft 506 kts 82°
2026-04-25 18:05 44.87179 -51.95668 34352 ft 507 kts 82°
2026-04-25 18:05 44.87914 -51.85769 34360 ft 508 kts 82°
2026-04-25 18:06 44.88641 -51.75838 34337 ft 509 kts 82°
2026-04-25 18:06 44.89353 -51.65933 34341 ft 510 kts 82°
2026-04-25 18:07 44.90059 -51.55974 34338 ft 510 kts 83°
2026-04-25 18:07 44.90759 -51.46003 34333 ft 511 kts 83°
2026-04-25 18:08 44.91335 -51.37701 34325 ft 511 kts 83°
2026-04-25 18:08 44.92020 -51.27715 34323 ft 511 kts 83°
2026-04-25 18:09 44.92694 -51.17767 34318 ft 511 kts 83°
2026-04-25 18:09 44.93362 -51.07767 34330 ft 512 kts 83°
2026-04-25 18:10 44.94022 -50.97758 34316 ft 512 kts 84°
2026-04-25 18:10 44.94674 -50.87742 34308 ft 512 kts 84°
2026-04-25 18:11 44.95315 -50.77744 34309 ft 511 kts 84°
2026-04-25 18:11 44.95945 -50.67783 34310 ft 512 kts 84°
2026-04-25 18:12 44.96572 -50.57728 34315 ft 514 kts 84°
2026-04-25 18:12 44.97192 -50.47652 34296 ft 516 kts 84°
2026-04-25 18:13 44.97803 -50.37549 34299 ft 517 kts 85°
2026-04-25 18:13 44.98409 -50.27422 34293 ft 517 kts 85°
2026-04-25 18:14 44.99297 -50.12278 34298 ft 518 kts 85°
2026-04-25 18:14 45.00014 -50.02136 34300 ft 519 kts 80°
2026-04-25 18:15 45.01812 -49.92259 34292 ft 519 kts 70°
2026-04-25 18:15 45.04271 -49.82661 34292 ft 519 kts 69°
2026-04-25 18:16 45.06732 -49.73054 34294 ft 519 kts 70°
2026-04-25 18:17 45.10333 -49.58654 34290 ft 519 kts 70°
2026-04-25 18:17 45.12723 -49.48965 34279 ft 519 kts 71°
2026-04-25 18:18 45.15088 -49.39338 34280 ft 521 kts 71°
2026-04-25 18:18 45.17472 -49.29602 34289 ft 523 kts 71°
2026-04-25 18:19 45.19864 -49.19809 34284 ft 525 kts 71°
2026-04-25 18:19 45.22236 -49.10042 34283 ft 527 kts 71°
2026-04-25 18:20 45.24615 -49.00199 34285 ft 527 kts 71°
2026-04-25 18:20 45.26991 -48.90333 34289 ft 526 kts 72°
2026-04-25 18:21 45.29352 -48.80482 34285 ft 525 kts 72°
2026-04-25 18:21 45.31681 -48.70718 34290 ft 524 kts 72°
2026-04-25 18:22 45.34015 -48.60895 34286 ft 524 kts 72°
2026-04-25 18:22 45.36328 -48.51110 34286 ft 525 kts 72°
2026-04-25 18:23 45.38655 -48.41238 34293 ft 527 kts 72°
2026-04-25 18:23 45.40986 -48.31297 34308 ft 528 kts 72°
2026-04-25 18:24 45.43289 -48.21430 34304 ft 529 kts 73°
2026-04-25 18:24 45.45609 -48.11441 34303 ft 530 kts 73°
2026-04-25 18:25 45.47916 -48.01461 34301 ft 530 kts 73°
2026-04-25 18:25 45.50204 -47.91527 34307 ft 529 kts 73°
2026-04-25 18:26 45.52490 -47.81539 34333 ft 529 kts 73°
2026-04-25 18:26 45.54773 -47.71552 34312 ft 529 kts 73°
2026-04-25 18:27 45.57048 -47.61534 34323 ft 529 kts 74°
2026-04-25 18:27 45.59288 -47.51608 34342 ft 529 kts 74°
2026-04-25 18:28 45.61540 -47.41592 34341 ft 529 kts 74°
2026-04-25 18:28 45.63789 -47.31545 34339 ft 529 kts 74°
2026-04-25 18:29 45.67128 -47.16546 34357 ft 529 kts 75°
2026-04-25 18:30 45.71553 -46.96498 34357 ft 529 kts 75°
2026-04-25 18:30 45.73756 -46.86447 34365 ft 528 kts 75°
2026-04-25 18:31 45.75946 -46.76406 34357 ft 528 kts 75°
2026-04-25 18:31 45.78117 -46.66401 34374 ft 528 kts 75°
2026-04-25 18:32 45.80292 -46.56331 34376 ft 528 kts 76°
2026-04-25 18:32 45.82448 -46.46301 34385 ft 529 kts 76°
2026-04-25 18:33 45.84613 -46.36183 34385 ft 529 kts 76°
2026-04-25 18:33 45.86765 -46.26074 34398 ft 530 kts 76°
2026-04-25 18:34 45.88901 -46.15990 34390 ft 530 kts 76°
2026-04-25 18:34 45.91042 -46.05835 34411 ft 530 kts 76°
2026-04-25 18:35 45.93170 -45.95686 34418 ft 530 kts 76°
2026-04-25 18:35 45.95279 -45.85581 34420 ft 529 kts 76°
2026-04-25 18:36 45.97387 -45.75433 34418 ft 529 kts 77°
2026-04-25 18:36 45.99472 -45.65340 34433 ft 529 kts 77°
2026-04-25 18:37 46.01554 -45.55213 34436 ft 529 kts 77°
2026-04-25 18:37 46.03631 -45.45056 34443 ft 529 kts 77°
2026-04-25 18:38 46.05702 -45.34879 34437 ft 528 kts 77°
2026-04-25 18:38 46.07760 -45.24716 34456 ft 528 kts 77°
2026-04-25 18:39 46.09811 -45.14533 34457 ft 529 kts 77°
2026-04-25 18:39 46.11850 -45.04356 34458 ft 529 kts 77°
2026-04-25 18:40 46.13882 -44.94167 34445 ft 529 kts 78°
2026-04-25 18:40 46.15895 -44.84017 34472 ft 529 kts 78°
2026-04-25 18:41 46.17914 -44.73776 34478 ft 530 kts 78°
2026-04-25 18:41 46.19917 -44.63571 34483 ft 531 kts 78°
2026-04-25 18:42 46.21259 -44.56700 34489 ft 531 kts 78°
2026-04-25 18:42 46.23927 -44.42975 34495 ft 532 kts 78°
2026-04-25 18:43 46.25904 -44.32741 34496 ft 532 kts 78°
2026-04-25 18:43 46.27882 -44.22444 34491 ft 532 kts 78°
2026-04-25 18:44 46.29854 -44.12126 34494 ft 531 kts 78°
2026-04-25 18:44 46.31801 -44.01879 34472 ft 530 kts 79°
2026-04-25 18:45 46.33746 -43.91589 34505 ft 530 kts 79°
2026-04-25 18:45 46.35687 -43.81257 34519 ft 531 kts 79°
2026-04-25 18:46 46.37610 -43.70968 34517 ft 531 kts 79°
2026-04-25 18:46 46.39537 -43.60606 34518 ft 532 kts 79°
2026-04-25 18:47 46.41443 -43.50298 34522 ft 532 kts 79°
2026-04-25 18:47 46.43353 -43.39906 34526 ft 532 kts 79°
2026-04-25 18:48 46.45252 -43.29524 34522 ft 531 kts 80°
2026-04-25 18:48 46.47137 -43.19156 34525 ft 531 kts 80°
2026-04-25 18:49 46.48998 -43.08860 34527 ft 530 kts 80°
2026-04-25 18:49 46.50863 -42.98485 34537 ft 530 kts 81°
2026-04-25 18:50 46.52718 -42.88102 34529 ft 531 kts 81°
2026-04-25 18:50 46.54554 -42.77763 34536 ft 531 kts 81°
2026-04-25 18:51 46.55787 -42.70790 34537 ft 532 kts 81°
2026-04-25 18:51 46.58222 -42.56941 34544 ft 533 kts 81°
2026-04-25 18:52 46.60049 -42.46480 34535 ft 533 kts 82°
2026-04-25 18:52 46.61561 -42.37776 34542 ft 533 kts 82°
2026-04-25 18:53 46.63664 -42.25594 34551 ft 533 kts 82°
2026-04-25 18:53 46.65161 -42.16871 34548 ft 533 kts 82°
2026-04-25 18:54 46.67838 -42.01164 34545 ft 532 kts 82°
2026-04-25 18:55 46.69611 -41.90675 34548 ft 533 kts 82°
2026-04-25 18:55 46.71370 -41.80212 34554 ft 533 kts 82°
2026-04-25 18:56 46.73119 -41.69739 34528 ft 534 kts 83°
2026-04-25 18:56 46.74868 -41.59212 34548 ft 534 kts 83°
2026-04-25 18:57 46.76612 -41.48647 34565 ft 534 kts 83°
2026-04-25 18:57 46.78344 -41.38090 34565 ft 534 kts 83°
2026-04-25 18:58 46.80052 -41.27610 34539 ft 534 kts 83°
2026-04-25 18:58 46.82617 -41.11754 34519 ft 532 kts 83°
2026-04-25 18:59 46.85975 -40.90751 34557 ft 532 kts 83°
2026-04-25 19:00 46.88475 -40.74943 34568 ft 532 kts 84°
2026-04-25 19:01 46.90948 -40.59152 34573 ft 533 kts 84°
2026-04-25 19:01 46.92594 -40.48561 34577 ft 533 kts 84°
2026-04-25 19:02 46.95031 -40.32746 34591 ft 533 kts 84°
2026-04-25 19:03 46.97188 -40.18614 34584 ft 533 kts 84°
2026-04-25 19:03 46.99059 -40.06269 34582 ft 532 kts 84°
2026-04-25 19:04 47.00533 -39.90339 34600 ft 521 kts 94°
2026-04-25 19:05 47.01306 -39.69077 34594 ft 524 kts 94°
2026-04-25 19:06 47.01724 -39.58450 34610 ft 525 kts 94°
2026-04-25 19:06 47.02361 -39.42392 34591 ft 526 kts 94°
2026-04-25 19:07 47.02974 -39.26310 34604 ft 526 kts 94°
2026-04-25 19:08 47.03558 -39.10268 34609 ft 528 kts 94°
2026-04-25 19:09 47.04248 -38.90514 34606 ft 529 kts 94°
2026-04-25 19:10 47.04846 -38.72553 34616 ft 529 kts 94°
2026-04-25 19:10 47.05191 -38.61780 34616 ft 528 kts 94°
2026-04-25 19:11 47.05526 -38.51013 34604 ft 527 kts 94°
2026-04-25 19:11 47.05847 -38.40355 34626 ft 526 kts 94°
2026-04-25 19:12 47.06160 -38.29616 34630 ft 526 kts 94°
2026-04-25 19:12 47.06463 -38.18894 34632 ft 525 kts 94°
2026-04-25 19:13 47.06755 -38.08223 34629 ft 525 kts 94°
2026-04-25 19:13 47.07037 -37.97515 34629 ft 524 kts 94°
2026-04-25 19:14 47.07308 -37.86865 34633 ft 524 kts 94°
2026-04-25 19:14 47.07570 -37.76167 34635 ft 524 kts 94°
2026-04-25 19:15 47.07823 -37.65462 34644 ft 524 kts 94°
2026-04-25 19:15 47.08064 -37.54804 34647 ft 525 kts 94°
2026-04-25 19:16 47.08297 -37.44068 34643 ft 524 kts 94°
2026-04-25 19:16 47.08519 -37.33414 34648 ft 524 kts 94°
2026-04-25 19:17 47.08732 -37.22689 34652 ft 524 kts 94°
2026-04-25 19:17 47.08934 -37.12042 34661 ft 524 kts 94°
2026-04-25 19:18 47.09126 -37.01351 34650 ft 524 kts 94°
2026-04-25 19:18 47.09308 -36.90662 34664 ft 523 kts 94°
2026-04-25 19:19 47.09481 -36.79985 34679 ft 523 kts 94°
2026-04-25 19:19 47.09642 -36.69377 34680 ft 523 kts 94°
2026-04-25 19:20 47.09794 -36.58709 34683 ft 523 kts 94°
2026-04-25 19:20 47.09937 -36.48020 34675 ft 521 kts 94°
2026-04-25 19:21 47.10069 -36.37455 34691 ft 520 kts 94°
2026-04-25 19:21 47.10249 -36.21486 34712 ft 520 kts 94°
2026-04-25 19:22 47.10355 -36.10939 34712 ft 519 kts 94°
2026-04-25 19:23 47.10497 -35.95042 34721 ft 519 kts 94°
2026-04-25 19:23 47.10618 -35.79198 34708 ft 518 kts 94°
2026-04-25 19:24 47.10686 -35.68614 34729 ft 518 kts 94°
2026-04-25 19:25 47.10793 -35.47393 34752 ft 519 kts 95°
2026-04-25 19:25 47.10831 -35.36854 34765 ft 519 kts 95°
2026-04-25 19:26 47.10861 -35.26234 34753 ft 519 kts 95°
2026-04-25 19:26 47.10880 -35.15627 34772 ft 519 kts 95°
2026-04-25 19:27 47.10887 -35.08519 34738 ft 520 kts 95°
2026-04-25 19:27 47.10889 -34.94443 34772 ft 520 kts 95°
2026-04-25 19:28 47.10879 -34.83822 34786 ft 521 kts 95°
2026-04-25 19:28 47.10859 -34.73147 34799 ft 522 kts 95°
2026-04-25 19:29 47.10829 -34.62474 34805 ft 523 kts 95°
2026-04-25 19:29 47.10789 -34.51795 34799 ft 523 kts 95°
2026-04-25 19:30 47.10740 -34.41164 34819 ft 522 kts 95°
2026-04-25 19:30 47.10681 -34.30491 34828 ft 522 kts 95°
2026-04-25 19:31 47.10611 -34.19829 34838 ft 522 kts 95°
2026-04-25 19:31 47.10531 -34.09148 34821 ft 523 kts 95°
2026-04-25 19:32 47.10443 -33.98537 34841 ft 522 kts 95°
2026-04-25 19:32 47.10378 -33.91454 34850 ft 522 kts 95°
2026-04-25 19:33 47.10235 -33.77247 34859 ft 522 kts 95°
2026-04-25 19:33 47.10116 -33.66571 34846 ft 522 kts 95°
2026-04-25 19:34 47.09988 -33.55981 34867 ft 522 kts 95°
2026-04-25 19:34 47.09849 -33.45309 34869 ft 523 kts 95°
2026-04-25 19:35 47.09700 -33.34616 34892 ft 524 kts 95°
2026-04-25 19:35 47.09540 -33.23881 34904 ft 525 kts 95°
2026-04-25 19:36 47.09372 -33.13212 34893 ft 526 kts 95°
2026-04-25 19:36 47.09192 -33.02454 34904 ft 526 kts 95°
2026-04-25 19:37 47.09036 -32.93534 34881 ft 525 kts 95°
2026-04-25 19:37 47.08805 -32.81060 34921 ft 524 kts 95°
2026-04-25 19:38 47.08632 -32.72171 34926 ft 524 kts 95°
2026-04-25 19:38 47.08415 -32.61467 34932 ft 523 kts 95°
2026-04-25 19:39 47.08189 -32.50832 34935 ft 523 kts 95°
2026-04-25 19:39 47.07951 -32.40129 34946 ft 523 kts 95°
2026-04-25 19:40 47.07707 -32.29546 34943 ft 522 kts 95°
2026-04-25 19:40 47.07451 -32.18883 34944 ft 522 kts 95°
2026-04-25 19:41 47.07185 -32.08219 34961 ft 522 kts 95°
2026-04-25 19:41 47.06956 -31.99359 34964 ft 522 kts 95°
2026-04-25 19:42 47.06625 -31.86989 34969 ft 522 kts 95°
2026-04-25 19:42 47.06330 -31.76342 34979 ft 522 kts 95°
2026-04-25 19:43 47.06027 -31.65763 34987 ft 522 kts 95°
2026-04-25 19:43 47.05712 -31.55121 34992 ft 522 kts 95°
2026-04-25 19:44 47.05388 -31.44493 34987 ft 521 kts 95°
2026-04-25 19:44 47.05054 -31.33857 34997 ft 520 kts 95°
2026-04-25 19:45 47.04713 -31.23322 35002 ft 520 kts 95°
2026-04-25 19:45 47.04360 -31.12723 35006 ft 519 kts 95°
2026-04-25 19:46 47.03997 -31.02129 35010 ft 519 kts 95°
2026-04-25 19:46 47.03626 -30.91556 35020 ft 518 kts 96°
2026-04-25 19:47 47.03247 -30.81071 35024 ft 518 kts 96°
2026-04-25 19:47 47.02858 -30.70533 35032 ft 517 kts 96°
2026-04-25 19:48 47.02458 -30.59993 35040 ft 517 kts 96°
2026-04-25 19:48 47.02052 -30.49530 35042 ft 517 kts 96°
2026-04-25 19:49 47.01704 -30.40766 35047 ft 516 kts 96°
2026-04-25 19:49 47.01205 -30.28476 35045 ft 517 kts 96°
2026-04-25 19:50 47.00549 -30.12758 35049 ft 517 kts 96°
2026-04-25 19:51 47.00102 -30.02239 35048 ft 517 kts 95°
2026-04-25 19:51 47.00251 -29.91654 35069 ft 519 kts 88°
2026-04-25 19:52 47.00751 -29.81084 35066 ft 520 kts 88°
2026-04-25 19:52 47.01236 -29.70555 35062 ft 520 kts 88°
2026-04-25 19:53 47.01680 -29.59969 35067 ft 520 kts 89°
2026-04-25 19:53 47.02098 -29.49394 35072 ft 520 kts 89°
2026-04-25 19:54 47.02505 -29.38781 35082 ft 520 kts 89°
2026-04-25 19:54 47.02902 -29.28246 35086 ft 521 kts 89°
2026-04-25 19:55 47.03294 -29.17620 35085 ft 521 kts 89°
2026-04-25 19:55 47.03676 -29.06993 35087 ft 521 kts 89°
2026-04-25 19:56 47.04047 -28.96411 35099 ft 521 kts 89°
2026-04-25 19:56 47.04409 -28.85777 35101 ft 522 kts 89°
2026-04-25 19:57 47.04760 -28.75202 35106 ft 522 kts 89°
2026-04-25 19:57 47.05103 -28.64551 35106 ft 522 kts 89°
2026-04-25 19:58 47.05437 -28.53906 35103 ft 521 kts 89°
2026-04-25 19:58 47.05760 -28.43286 35102 ft 521 kts 89°
2026-04-25 19:59 47.06071 -28.32727 35114 ft 520 kts 89°
2026-04-25 19:59 47.06374 -28.22100 35112 ft 520 kts 89°
2026-04-25 20:00 47.06665 -28.11524 35105 ft 519 kts 89°
2026-04-25 20:00 47.06946 -28.01003 35115 ft 519 kts 89°
2026-04-25 20:01 47.07353 -27.85098 35124 ft 519 kts 89°
2026-04-25 20:01 47.07611 -27.74499 35120 ft 520 kts 89°
2026-04-25 20:02 47.07858 -27.63947 35122 ft 520 kts 89°
2026-04-25 20:02 47.08098 -27.53333 35124 ft 520 kts 89°
2026-04-25 20:03 47.08328 -27.42727 35128 ft 520 kts 89°
2026-04-25 20:03 47.08547 -27.32099 35130 ft 520 kts 89°
2026-04-25 20:04 47.08754 -27.21556 35114 ft 519 kts 89°
2026-04-25 20:04 47.08954 -27.10947 35126 ft 518 kts 89°
2026-04-25 20:05 47.09144 -27.00366 35128 ft 518 kts 89°
2026-04-25 20:05 47.09322 -26.89850 35128 ft 518 kts 89°
2026-04-25 20:06 47.09492 -26.79282 35131 ft 518 kts 89°
2026-04-25 20:06 47.09652 -26.68701 35131 ft 518 kts 89°
2026-04-25 20:07 47.09803 -26.58123 35131 ft 518 kts 89°
2026-04-25 20:07 47.09944 -26.47527 35130 ft 519 kts 89°
2026-04-25 20:08 47.10075 -26.36932 35139 ft 518 kts 89°
2026-04-25 20:08 47.10196 -26.26411 35133 ft 518 kts 89°
2026-04-25 20:09 47.10307 -26.15835 35131 ft 517 kts 89°
2026-04-25 20:09 47.10409 -26.05274 35136 ft 516 kts 89°
2026-04-25 20:10 47.10501 -25.94720 35135 ft 515 kts 89°
2026-04-25 20:10 47.10582 -25.84271 35137 ft 515 kts 89°
2026-04-25 20:11 47.10655 -25.73739 35133 ft 515 kts 89°
2026-04-25 20:11 47.10717 -25.63222 35135 ft 515 kts 89°
2026-04-25 20:12 47.10770 -25.52680 35135 ft 515 kts 89°
2026-04-25 20:12 47.10800 -25.45690 35142 ft 515 kts 89°
2026-04-25 20:13 47.10847 -25.31664 35132 ft 515 kts 89°
2026-04-25 20:13 47.10872 -25.21197 35130 ft 515 kts 89°
2026-04-25 20:14 47.10886 -25.10673 35137 ft 514 kts 89°
2026-04-25 20:14 47.10891 -25.00226 35142 ft 514 kts 89°
2026-04-25 20:15 47.10886 -24.89693 35135 ft 515 kts 89°
2026-04-25 20:15 47.10872 -24.79237 35137 ft 515 kts 89°
2026-04-25 20:16 47.10849 -24.68700 35134 ft 515 kts 89°
2026-04-25 20:16 47.10815 -24.58167 35141 ft 515 kts 89°
2026-04-25 20:17 47.10772 -24.47693 35131 ft 516 kts 89°
2026-04-25 20:17 47.10719 -24.37137 35131 ft 516 kts 89°
2026-04-25 20:18 47.10656 -24.26586 35121 ft 516 kts 89°
2026-04-25 20:18 47.10585 -24.16099 35130 ft 516 kts 89°
2026-04-25 20:19 47.10503 -24.05551 35135 ft 517 kts 89°
2026-04-25 20:19 47.10411 -23.95029 35127 ft 517 kts 89°
2026-04-25 20:20 47.10310 -23.84467 35151 ft 519 kts 89°
2026-04-25 20:20 47.10256 -23.79164 35350 ft 520 kts 89°
2026-04-25 20:20 47.10199 -23.73851 35667 ft 517 kts 90°
2026-04-25 20:21 47.10139 -23.68576 36030 ft 515 kts 90°
2026-04-25 20:21 47.10078 -23.63387 36390 ft 512 kts 90°
2026-04-25 20:21 47.10015 -23.58173 36719 ft 509 kts 90°
2026-04-25 20:21 47.09949 -23.52962 36989 ft 508 kts 90°
2026-04-25 20:22 47.09859 -23.46059 37082 ft 512 kts 90°
2026-04-25 20:22 47.09689 -23.33832 37114 ft 511 kts 90°
2026-04-25 20:23 47.09534 -23.23477 37124 ft 507 kts 90°
2026-04-25 20:23 47.09371 -23.13136 37118 ft 506 kts 90°
2026-04-25 20:24 47.09199 -23.02874 37118 ft 506 kts 90°
2026-04-25 20:24 47.09017 -22.92534 37119 ft 506 kts 90°
2026-04-25 20:25 47.08826 -22.82186 37118 ft 507 kts 91°
2026-04-25 20:25 47.08625 -22.71865 37120 ft 508 kts 90°
2026-04-25 20:26 47.08414 -22.61451 37116 ft 509 kts 91°
2026-04-25 20:26 47.08194 -22.51099 37110 ft 510 kts 91°
2026-04-25 20:27 47.07963 -22.40661 37109 ft 511 kts 91°
2026-04-25 20:27 47.07724 -22.30295 37112 ft 511 kts 91°
2026-04-25 20:28 47.07474 -22.19852 37103 ft 511 kts 91°
2026-04-25 20:28 47.07215 -22.09421 37100 ft 511 kts 91°
2026-04-25 20:29 47.06948 -21.99068 37101 ft 511 kts 91°
2026-04-25 20:29 47.06670 -21.88652 37100 ft 510 kts 91°
2026-04-25 20:30 47.06383 -21.78252 37099 ft 510 kts 91°
2026-04-25 20:30 47.06086 -21.67826 37092 ft 510 kts 91°
2026-04-25 20:31 47.05782 -21.57491 37096 ft 509 kts 91°
2026-04-25 20:31 47.05467 -21.47086 37090 ft 509 kts 91°
2026-04-25 20:32 47.05145 -21.36760 37089 ft 509 kts 92°
2026-04-25 20:32 47.04811 -21.26369 37089 ft 509 kts 92°
2026-04-25 20:33 47.04468 -21.15979 37092 ft 510 kts 92°
2026-04-25 20:33 47.04176 -21.07332 37090 ft 511 kts 92°
2026-04-25 20:34 47.03755 -20.95221 37100 ft 512 kts 92°
2026-04-25 20:34 47.03381 -20.84773 37088 ft 512 kts 92°
2026-04-25 20:35 47.02999 -20.74331 37088 ft 512 kts 92°
2026-04-25 20:35 47.02608 -20.63939 37090 ft 512 kts 92°
2026-04-25 20:36 47.02208 -20.53549 37086 ft 512 kts 92°
2026-04-25 20:36 47.01798 -20.43119 37092 ft 512 kts 93°
2026-04-25 20:37 47.01378 -20.32693 37083 ft 511 kts 93°
2026-04-25 20:37 47.00949 -20.22297 37082 ft 510 kts 93°
2026-04-25 20:38 47.00516 -20.11982 37080 ft 509 kts 93°
2026-04-25 20:38 47.00074 -20.01622 37089 ft 509 kts 93°
2026-04-25 20:39 47.00098 -19.91268 37090 ft 507 kts 88°
2026-04-25 20:39 47.00308 -19.82678 37081 ft 507 kts 88°
2026-04-25 20:40 47.00593 -19.70643 37087 ft 506 kts 88°
2026-04-25 20:40 47.00798 -19.60319 37090 ft 506 kts 88°
2026-04-25 20:41 47.00980 -19.50000 37085 ft 506 kts 89°
2026-04-25 20:41 47.01153 -19.39758 37088 ft 505 kts 89°
2026-04-25 20:42 47.01317 -19.29430 37089 ft 505 kts 89°
2026-04-25 20:42 47.01473 -19.19130 37084 ft 505 kts 89°
2026-04-25 20:43 47.01619 -19.08900 37091 ft 505 kts 89°
2026-04-25 20:43 47.01758 -18.98578 37095 ft 505 kts 89°
2026-04-25 20:44 47.01886 -18.88309 37099 ft 506 kts 89°
2026-04-25 20:44 47.02006 -18.77987 37092 ft 506 kts 90°
2026-04-25 20:45 47.02115 -18.67683 37105 ft 506 kts 90°
2026-04-25 20:45 47.02218 -18.57371 37106 ft 506 kts 90°
2026-04-25 20:46 47.02309 -18.47112 37109 ft 506 kts 90°
2026-04-25 20:46 47.02391 -18.36803 37109 ft 506 kts 90°
2026-04-25 20:47 47.02465 -18.26481 37113 ft 505 kts 91°
2026-04-25 20:47 47.02529 -18.16168 37117 ft 505 kts 91°
2026-04-25 20:48 47.02582 -18.05935 37123 ft 505 kts 91°
2026-04-25 20:48 47.02628 -17.95626 37124 ft 505 kts 91°
2026-04-25 20:49 47.02665 -17.85337 37107 ft 504 kts 91°
2026-04-25 20:49 47.02692 -17.75036 37128 ft 504 kts 91°
2026-04-25 20:50 47.02709 -17.64801 37138 ft 504 kts 92°
2026-04-25 20:50 47.02718 -17.54516 37139 ft 505 kts 92°
2026-04-25 20:51 47.02718 -17.44201 37136 ft 505 kts 92°
2026-04-25 20:51 47.02708 -17.33948 37146 ft 505 kts 92°
2026-04-25 20:52 47.02693 -17.25363 37149 ft 505 kts 92°
2026-04-25 20:52 47.02661 -17.13357 37159 ft 505 kts 92°
2026-04-25 20:53 47.02623 -17.03064 37159 ft 505 kts 92°
2026-04-25 20:53 47.02577 -16.92820 37165 ft 505 kts 92°
2026-04-25 20:54 47.02521 -16.82524 37165 ft 505 kts 92°
2026-04-25 20:54 47.02456 -16.72236 37168 ft 505 kts 93°
2026-04-25 20:55 47.02382 -16.61926 37162 ft 504 kts 93°
2026-04-25 20:55 47.02299 -16.51709 37172 ft 504 kts 93°
2026-04-25 20:56 47.02206 -16.41421 37174 ft 504 kts 94°
2026-04-25 20:56 47.02104 -16.31124 37182 ft 504 kts 94°
2026-04-25 20:57 47.01994 -16.20912 37181 ft 505 kts 94°
2026-04-25 20:57 47.01874 -16.10623 37182 ft 505 kts 94°
2026-04-25 20:58 47.01744 -16.00321 37185 ft 505 kts 94°
2026-04-25 20:58 47.01605 -15.90007 37206 ft 506 kts 94°
2026-04-25 20:59 47.01457 -15.79702 37195 ft 506 kts 94°
2026-04-25 20:59 47.01300 -15.69420 37201 ft 506 kts 95°
2026-04-25 21:00 47.01190 -15.62531 37205 ft 506 kts 95°
2026-04-25 21:01 47.00867 -15.43689 37211 ft 505 kts 95°
2026-04-25 21:01 47.00677 -15.33379 37193 ft 505 kts 95°
2026-04-25 21:02 47.00480 -15.23148 37213 ft 504 kts 95°
2026-04-25 21:02 47.00273 -15.12883 37194 ft 504 kts 96°
2026-04-25 21:03 47.00057 -15.02602 37221 ft 503 kts 96°
2026-04-25 21:03 47.00130 -14.92318 37227 ft 505 kts 91°
2026-04-25 21:04 47.00428 -14.82019 37221 ft 505 kts 91°
2026-04-25 21:04 47.00722 -14.71789 37224 ft 505 kts 91°
2026-04-25 21:05 47.00986 -14.61481 37226 ft 505 kts 92°
2026-04-25 21:05 47.01228 -14.51176 37232 ft 506 kts 92°
2026-04-25 21:06 47.01456 -14.40927 37232 ft 505 kts 92°
2026-04-25 21:06 47.01678 -14.30617 37234 ft 505 kts 92°
2026-04-25 21:07 47.01890 -14.20372 37234 ft 505 kts 92°
2026-04-25 21:07 47.02094 -14.10070 37234 ft 505 kts 92°
2026-04-25 21:08 47.02289 -13.99780 37237 ft 504 kts 92°
2026-04-25 21:08 47.02474 -13.89558 37234 ft 503 kts 92°
2026-04-25 21:09 47.02706 -13.75905 37240 ft 503 kts 92°
2026-04-25 21:09 47.02870 -13.65638 37223 ft 502 kts 92°
2026-04-25 21:10 47.03048 -13.53755 37236 ft 502 kts 92°
2026-04-25 21:10 47.03169 -13.45197 37242 ft 501 kts 92°
2026-04-25 21:11 47.03303 -13.35040 37244 ft 502 kts 92°
2026-04-25 21:11 47.03431 -13.24778 37243 ft 502 kts 92°
2026-04-25 21:12 47.03547 -13.14602 37242 ft 501 kts 92°
2026-04-25 21:12 47.03638 -13.06092 37247 ft 501 kts 92°
2026-04-25 21:13 47.03756 -12.94113 37247 ft 501 kts 92°
2026-04-25 21:13 47.03846 -12.83880 37248 ft 502 kts 92°
2026-04-25 21:14 47.03927 -12.73709 37251 ft 502 kts 92°
2026-04-25 21:14 47.04000 -12.63464 37250 ft 502 kts 92°
2026-04-25 21:15 47.04063 -12.53233 37250 ft 502 kts 92°
2026-04-25 21:15 47.04117 -12.42992 37250 ft 502 kts 92°
2026-04-25 21:16 47.04161 -12.32828 37248 ft 501 kts 92°
2026-04-25 21:16 47.04197 -12.22607 37254 ft 501 kts 92°
2026-04-25 21:17 47.04224 -12.12370 37250 ft 501 kts 93°
2026-04-25 21:17 47.04241 -12.02131 37251 ft 501 kts 93°
2026-04-25 21:18 47.04250 -11.91911 37246 ft 501 kts 93°
2026-04-25 21:18 47.04250 -11.81766 37254 ft 501 kts 93°
2026-04-25 21:19 47.04240 -11.71538 37255 ft 501 kts 93°
2026-04-25 21:19 47.04222 -11.61317 37256 ft 501 kts 93°
2026-04-25 21:20 47.04198 -11.52825 37242 ft 500 kts 93°
2026-04-25 21:20 47.04156 -11.40958 37259 ft 500 kts 93°
2026-04-25 21:21 47.04110 -11.30748 37255 ft 500 kts 93°
2026-04-25 21:21 47.04055 -11.20557 37243 ft 500 kts 93°
2026-04-25 21:22 47.03992 -11.10416 37243 ft 500 kts 93°
2026-04-25 21:22 47.03919 -11.00204 37253 ft 500 kts 93°
2026-04-25 21:23 47.03837 -10.90005 37257 ft 501 kts 93°
2026-04-25 21:23 47.03746 -10.79780 37258 ft 501 kts 93°
2026-04-25 21:24 47.03646 -10.69608 37245 ft 502 kts 93°
2026-04-25 21:24 47.03536 -10.59360 37254 ft 502 kts 94°
2026-04-25 21:25 47.03417 -10.49121 37254 ft 502 kts 94°
2026-04-25 21:25 47.03290 -10.38910 37253 ft 502 kts 94°
2026-04-25 21:26 47.03153 -10.28664 37243 ft 502 kts 94°
2026-04-25 21:26 47.03007 -10.18487 37256 ft 502 kts 94°
2026-04-25 21:27 47.02852 -10.08240 37250 ft 502 kts 94°
2026-04-25 21:27 47.02688 -9.98004 37257 ft 502 kts 94°
2026-04-25 21:28 47.02514 -9.87754 37240 ft 502 kts 94°
2026-04-25 21:28 47.02331 -9.77515 37255 ft 502 kts 94°
2026-04-25 21:29 47.02140 -9.67323 37258 ft 503 kts 94°
2026-04-25 21:29 47.01939 -9.57059 37258 ft 503 kts 94°
2026-04-25 21:30 47.01729 -9.46800 37240 ft 503 kts 94°
2026-04-25 21:30 47.01547 -9.38286 37257 ft 503 kts 94°
2026-04-25 21:31 47.01282 -9.26354 37251 ft 503 kts 94°
2026-04-25 21:31 47.01044 -9.16110 37254 ft 502 kts 94°
2026-04-25 21:32 47.00799 -9.05929 37255 ft 502 kts 94°
2026-04-25 21:32 47.00544 -8.95718 37250 ft 501 kts 94°
2026-04-25 21:33 47.00281 -8.85507 37249 ft 500 kts 94°
2026-04-25 21:33 47.00011 -8.75373 37249 ft 500 kts 94°
2026-04-25 21:34 46.99923 -8.65188 37249 ft 500 kts 91°
2026-04-25 21:34 47.00010 -8.54991 37250 ft 500 kts 91°
2026-04-25 21:35 47.00061 -8.44788 37248 ft 500 kts 91°
2026-04-25 21:35 47.00065 -8.34593 37247 ft 500 kts 92°
2026-04-25 21:36 47.00054 -8.24457 37248 ft 500 kts 92°
2026-04-25 21:36 47.00037 -8.14260 37241 ft 500 kts 91°
2026-04-25 21:37 47.00018 -8.05788 37250 ft 501 kts 92°
2026-04-25 21:37 46.99281 -7.93945 37242 ft 498 kts 103°
2026-04-25 21:38 46.97857 -7.83999 37244 ft 498 kts 104°
2026-04-25 21:38 46.96426 -7.74129 37233 ft 499 kts 103°
2026-04-25 21:39 46.95009 -7.64151 37242 ft 500 kts 103°
2026-04-25 21:39 46.93600 -7.54161 37236 ft 501 kts 103°
2026-04-25 21:40 46.92183 -7.44160 37235 ft 502 kts 103°
2026-04-25 21:40 46.90756 -7.34167 37226 ft 501 kts 103°
2026-04-25 21:41 46.89388 -7.24233 37231 ft 501 kts 99°
2026-04-25 21:41 46.88815 -7.14075 37239 ft 501 kts 94°
2026-04-25 21:42 46.88378 -7.03900 37230 ft 501 kts 94°
2026-04-25 21:42 46.87906 -6.93727 37233 ft 501 kts 95°
2026-04-25 21:43 46.87397 -6.83574 37235 ft 500 kts 95°
2026-04-25 21:43 46.86869 -6.73440 37235 ft 499 kts 95°
2026-04-25 21:44 46.86333 -6.63324 37235 ft 499 kts 95°
2026-04-25 21:45 46.85519 -6.48228 37237 ft 498 kts 95°
2026-04-25 21:45 46.84964 -6.38135 37230 ft 498 kts 95°
2026-04-25 21:46 46.84404 -6.28038 37231 ft 498 kts 95°
2026-04-25 21:46 46.83832 -6.17936 37230 ft 498 kts 95°
2026-04-25 21:47 46.83253 -6.07905 37235 ft 497 kts 95°
2026-04-25 21:47 46.82666 -5.97880 37233 ft 498 kts 95°
2026-04-25 21:48 46.82068 -5.87793 37222 ft 498 kts 95°
2026-04-25 21:48 46.81461 -5.77718 37218 ft 497 kts 95°
2026-04-25 21:49 46.80848 -5.67700 37227 ft 497 kts 94°
2026-04-25 21:49 46.80222 -5.57629 37215 ft 498 kts 94°
2026-04-25 21:50 46.79590 -5.47562 37213 ft 498 kts 94°
2026-04-25 21:50 46.78952 -5.37548 37224 ft 498 kts 95°
2026-04-25 21:51 46.78298 -5.27458 37223 ft 498 kts 94°
2026-04-25 21:51 46.77637 -5.17387 37210 ft 498 kts 94°
2026-04-25 21:52 46.76973 -5.07383 37209 ft 498 kts 94°
2026-04-25 21:52 46.76294 -4.97326 37211 ft 497 kts 94°
2026-04-25 21:53 46.75607 -4.87265 37210 ft 497 kts 94°
2026-04-25 21:53 46.74918 -4.77303 37217 ft 496 kts 94°
2026-04-25 21:54 46.74217 -4.67294 37208 ft 495 kts 94°
2026-04-25 21:54 46.73509 -4.57305 37212 ft 494 kts 95°
2026-04-25 21:55 46.72793 -4.47344 37200 ft 494 kts 95°
2026-04-25 21:55 46.72191 -4.39052 37200 ft 494 kts 95°
2026-04-25 21:56 46.71341 -4.27497 37195 ft 493 kts 95°
2026-04-25 21:56 46.70726 -4.19223 37199 ft 493 kts 95°
2026-04-25 21:57 46.69977 -4.09271 37203 ft 494 kts 95°
2026-04-25 21:57 46.69220 -3.99320 37197 ft 494 kts 95°
2026-04-25 21:58 46.68455 -3.89385 37199 ft 493 kts 95°
2026-04-25 21:58 46.67685 -3.79500 37192 ft 493 kts 95°
2026-04-25 21:59 46.66898 -3.69506 37194 ft 493 kts 95°
2026-04-25 21:59 46.66112 -3.59647 37197 ft 493 kts 95°
2026-04-25 22:00 46.64911 -3.44771 37192 ft 493 kts 95°
2026-04-25 22:00 46.64098 -3.34839 37188 ft 494 kts 95°
2026-04-25 22:01 46.63277 -3.24919 37194 ft 494 kts 95°
2026-04-25 22:01 46.62586 -3.16652 37188 ft 494 kts 95°
2026-04-25 22:02 46.61611 -3.05107 37186 ft 494 kts 95°
2026-04-25 22:02 46.60763 -2.95183 37184 ft 495 kts 95°
2026-04-25 22:03 46.59904 -2.85230 37185 ft 495 kts 95°
2026-04-25 22:03 46.59038 -2.75309 37189 ft 495 kts 95°
2026-04-25 22:04 46.58169 -2.65442 37184 ft 495 kts 95°
2026-04-25 22:04 46.57286 -2.55524 37185 ft 494 kts 95°
2026-04-25 22:05 46.56395 -2.45611 37185 ft 494 kts 95°
2026-04-25 22:05 46.55494 -2.35690 37191 ft 495 kts 95°
2026-04-25 22:06 46.54586 -2.25781 37178 ft 495 kts 95°
2026-04-25 22:06 46.53673 -2.15926 37186 ft 494 kts 95°
2026-04-25 22:07 46.52904 -2.07686 37185 ft 494 kts 96°
2026-04-25 22:07 46.51817 -1.96161 37192 ft 494 kts 96°
2026-04-25 22:08 46.50876 -1.86279 37182 ft 494 kts 96°
2026-04-25 22:08 46.49926 -1.76397 37186 ft 494 kts 96°
2026-04-25 22:09 46.48967 -1.66521 37196 ft 494 kts 96°
2026-04-25 22:09 46.48001 -1.56650 37201 ft 494 kts 96°
2026-04-25 22:10 46.47025 -1.46774 37197 ft 494 kts 96°
2026-04-25 22:10 46.46040 -1.36901 37194 ft 494 kts 97°
2026-04-25 22:11 46.45054 -1.27097 37189 ft 494 kts 97°
2026-04-25 22:11 46.44053 -1.17239 37187 ft 494 kts 97°
2026-04-25 22:12 46.43043 -1.07378 37174 ft 495 kts 97°
2026-04-25 22:12 46.42194 -0.99150 37177 ft 495 kts 97°
2026-04-25 22:13 46.40997 -0.87658 37175 ft 496 kts 97°
2026-04-25 22:13 46.39956 -0.77749 37184 ft 496 kts 97°
2026-04-25 22:14 46.38913 -0.67914 37182 ft 497 kts 97°
2026-04-25 22:14 46.37854 -0.58012 37167 ft 497 kts 98°
2026-04-25 22:15 46.36787 -0.48112 37166 ft 497 kts 98°
2026-04-25 22:16 46.35173 -0.33296 37175 ft 497 kts 98°
2026-04-25 22:16 46.34083 -0.23394 37171 ft 497 kts 98°
2026-04-25 22:17 46.32985 -0.13497 37171 ft 497 kts 98°
2026-04-25 22:17 46.31886 -0.03676 37167 ft 497 kts 98°
2026-04-25 22:18 46.30771 0.06204 37165 ft 497 kts 98°
2026-04-25 22:18 46.29648 0.16085 37170 ft 497 kts 98°
2026-04-25 22:19 46.28517 0.25956 37159 ft 497 kts 98°
2026-04-25 22:19 46.27383 0.35773 37159 ft 498 kts 98°
2026-04-25 22:20 46.26234 0.45643 37163 ft 498 kts 99°
2026-04-25 22:20 46.25073 0.55536 37167 ft 498 kts 99°
2026-04-25 22:21 46.23910 0.65371 37167 ft 498 kts 99°
2026-04-25 22:21 46.22730 0.75280 37169 ft 499 kts 99°
2026-04-25 22:22 46.21544 0.85157 37168 ft 499 kts 99°
2026-04-25 22:22 46.20357 0.94963 37165 ft 499 kts 100°
2026-04-25 22:23 46.19154 1.04840 37179 ft 500 kts 100°
2026-04-25 22:23 46.17940 1.14732 37173 ft 500 kts 100°
2026-04-25 22:24 46.16718 1.24604 37176 ft 500 kts 100°
2026-04-25 22:24 46.15484 1.34488 37168 ft 500 kts 101°
2026-04-25 22:25 46.14255 1.44297 37185 ft 500 kts 101°
2026-04-25 22:25 46.12999 1.54231 37182 ft 500 kts 101°
2026-04-25 22:26 46.11747 1.64054 37164 ft 501 kts 101°
2026-04-25 22:26 46.10477 1.73937 37168 ft 501 kts 101°
2026-04-25 22:27 46.09210 1.83758 37173 ft 501 kts 101°
2026-04-25 22:27 46.07927 1.93630 37176 ft 501 kts 101°
2026-04-25 22:28 46.06632 2.03503 37174 ft 501 kts 102°
2026-04-25 22:28 46.05331 2.13350 37175 ft 500 kts 102°
2026-04-25 22:29 46.04022 2.23205 37158 ft 500 kts 102°
2026-04-25 22:29 46.02707 2.33031 37173 ft 500 kts 102°
2026-04-25 22:30 46.00727 2.47696 37167 ft 500 kts 102°
2026-04-25 22:30 45.99616 2.55862 37166 ft 499 kts 102°
2026-04-25 22:31 45.98046 2.67321 37149 ft 499 kts 102°
2026-04-25 22:31 45.96703 2.77058 37162 ft 499 kts 102°
2026-04-25 22:32 45.95344 2.86845 37165 ft 498 kts 102°
2026-04-25 22:32 45.93980 2.96600 37157 ft 498 kts 102°
2026-04-25 22:33 45.92618 3.06279 37150 ft 497 kts 102°
2026-04-25 22:33 45.91239 3.16015 37151 ft 497 kts 102°
2026-04-25 22:34 45.89851 3.25745 37160 ft 497 kts 102°
2026-04-25 22:34 45.88458 3.35455 37159 ft 497 kts 102°
2026-04-25 22:35 45.87055 3.45171 37156 ft 497 kts 102°
2026-04-25 22:35 45.85640 3.54912 37161 ft 497 kts 102°
2026-04-25 22:36 45.84227 3.64576 37156 ft 498 kts 103°
2026-04-25 22:36 45.82796 3.74296 37163 ft 498 kts 103°
2026-04-25 22:37 45.81357 3.84015 37158 ft 498 kts 103°
2026-04-25 22:37 45.79907 3.93742 37169 ft 498 kts 103°
2026-04-25 22:38 45.78459 4.03397 37163 ft 498 kts 103°
2026-04-25 22:38 45.76983 4.13072 37163 ft 497 kts 103°
2026-04-25 22:39 45.75492 4.22743 37162 ft 496 kts 103°
2026-04-25 22:39 45.73996 4.32405 37160 ft 496 kts 103°
2026-04-25 22:40 45.72506 4.41976 37153 ft 496 kts 103°
2026-04-25 22:40 45.71001 4.51611 37157 ft 496 kts 103°
2026-04-25 22:41 45.69483 4.61265 37152 ft 496 kts 103°
2026-04-25 22:41 45.67958 4.70896 37141 ft 496 kts 103°
2026-04-25 22:42 45.66685 4.78896 37139 ft 496 kts 103°
2026-04-25 22:42 45.65145 4.88518 37138 ft 495 kts 103°
2026-04-25 22:43 45.63610 4.98062 37138 ft 495 kts 103°
2026-04-25 22:43 45.62055 5.07671 37132 ft 495 kts 103°
2026-04-25 22:44 45.60497 5.17245 37129 ft 495 kts 103°
2026-04-25 22:44 45.58940 5.26759 37133 ft 494 kts 103°
2026-04-25 22:45 45.57369 5.36306 37137 ft 494 kts 103°
2026-04-25 22:45 45.55789 5.45855 37129 ft 493 kts 103°
2026-04-25 22:46 45.54204 5.55379 37131 ft 493 kts 104°
2026-04-25 22:46 45.52621 5.64835 37127 ft 492 kts 104°
2026-04-25 22:47 45.51023 5.74334 37134 ft 492 kts 104°
2026-04-25 22:47 45.49418 5.83820 37130 ft 492 kts 104°
2026-04-25 22:48 45.47806 5.93299 37128 ft 492 kts 104°
2026-04-25 22:48 45.46181 6.02800 37131 ft 492 kts 104°
2026-04-25 22:49 45.44564 6.12204 37135 ft 492 kts 104°
2026-04-25 22:49 45.42929 6.21664 37071 ft 493 kts 104°
2026-04-25 22:50 45.42093 6.26478 36243 ft 504 kts 104°
2026-04-25 22:50 45.41252 6.31314 35511 ft 502 kts 104°
2026-04-25 22:50 45.40410 6.36142 34632 ft 503 kts 104°
2026-04-25 22:50 45.39564 6.40986 33746 ft 504 kts 104°
2026-04-25 22:51 45.38671 6.45716 33316 ft 497 kts 107°
2026-04-25 22:51 45.37545 6.50389 32618 ft 501 kts 110°
2026-04-25 22:51 45.36355 6.55018 32173 ft 495 kts 110°
2026-04-25 22:51 45.35171 6.59574 31757 ft 489 kts 110°
2026-04-25 22:52 45.34008 6.64083 31373 ft 484 kts 110°
2026-04-25 22:52 45.32884 6.68578 30832 ft 483 kts 109°
2026-04-25 22:52 45.31807 6.73136 30265 ft 484 kts 108°
2026-04-25 22:52 45.31114 6.76144 29903 ft 482 kts 108°
2026-04-25 22:53 45.29744 6.82123 29248 ft 476 kts 108°
2026-04-25 22:53 45.28716 6.86583 28814 ft 471 kts 108°
2026-04-25 22:53 45.27693 6.90984 28380 ft 467 kts 108°
2026-04-25 22:53 45.26672 6.95345 27965 ft 463 kts 108°
2026-04-25 22:54 45.25667 6.99610 27536 ft 459 kts 108°
2026-04-25 22:54 45.24655 7.03891 27114 ft 455 kts 108°
2026-04-25 22:54 45.23646 7.08149 26708 ft 452 kts 108°
2026-04-25 22:54 45.22644 7.12363 26291 ft 449 kts 108°
2026-04-25 22:55 45.21647 7.16553 25887 ft 446 kts 108°
2026-04-25 22:55 45.20654 7.20717 25511 ft 444 kts 108°
2026-04-25 22:55 45.19677 7.24806 25113 ft 442 kts 108°
2026-04-25 22:55 45.18692 7.28927 24699 ft 440 kts 108°
2026-04-25 22:56 45.17711 7.33020 24290 ft 437 kts 108°
2026-04-25 22:56 45.16731 7.37102 23902 ft 435 kts 107°
2026-04-25 22:56 45.15758 7.41146 23449 ft 433 kts 107°
2026-04-25 22:56 45.14788 7.45175 23004 ft 430 kts 107°
2026-04-25 22:57 45.13823 7.49172 22567 ft 427 kts 107°
2026-04-25 22:57 45.12874 7.53097 22072 ft 424 kts 108°
2026-04-25 22:57 45.11918 7.57044 21684 ft 421 kts 108°
2026-04-25 22:57 45.10970 7.60952 21305 ft 419 kts 108°
2026-04-25 22:58 45.10026 7.64837 20930 ft 416 kts 108°
2026-04-25 22:58 45.09084 7.68707 20545 ft 414 kts 107°
2026-04-25 22:58 45.08145 7.72554 20167 ft 413 kts 107°
2026-04-25 22:58 45.07207 7.76393 19785 ft 411 kts 107°
2026-04-25 22:59 45.06273 7.80213 19482 ft 407 kts 107°
2026-04-25 22:59 45.05367 7.83900 19281 ft 382 kts 107°
2026-04-25 22:59 45.04518 7.87344 18817 ft 361 kts 107°
2026-04-25 22:59 45.03713 7.90612 18116 ft 356 kts 107°
2026-04-25 23:00 45.02898 7.93934 17641 ft 356 kts 107°
2026-04-25 23:00 45.02090 7.97217 17370 ft 349 kts 107°
2026-04-25 23:00 45.01299 8.00425 17087 ft 344 kts 107°
2026-04-25 23:00 45.00513 8.03605 16726 ft 341 kts 107°
2026-04-25 23:01 44.99734 8.06756 16357 ft 339 kts 107°
2026-04-25 23:01 44.98963 8.09867 15987 ft 337 kts 107°
2026-04-25 23:01 44.98190 8.12983 15640 ft 334 kts 107°
2026-04-25 23:01 44.97424 8.16065 15365 ft 329 kts 107°
2026-04-25 23:02 44.96673 8.19085 15195 ft 321 kts 107°
2026-04-25 23:02 44.95949 8.21990 14973 ft 315 kts 107°
2026-04-25 23:02 44.95221 8.24904 14654 ft 313 kts 107°
2026-04-25 23:02 44.94537 8.27800 14284 ft 306 kts 99°
2026-04-25 23:03 44.94495 8.30770 13822 ft 303 kts 75°
2026-04-25 23:03 44.95338 8.33440 13443 ft 296 kts 52°
2026-04-25 23:03 44.96786 8.35470 13071 ft 291 kts 32°
2026-04-25 23:03 44.98544 8.36816 12648 ft 291 kts 26°
2026-04-25 23:04 45.00357 8.38079 12251 ft 291 kts 26°
2026-04-25 23:04 45.01561 8.38913 12052 ft 289 kts 26°
2026-04-25 23:04 45.03892 8.40536 11679 ft 270 kts 26°
2026-04-25 23:04 45.05557 8.41706 11263 ft 266 kts 26°
2026-04-25 23:05 45.07215 8.42877 10971 ft 264 kts 26°
2026-04-25 23:05 45.08834 8.44027 10687 ft 262 kts 26°
2026-04-25 23:05 45.10464 8.45189 10376 ft 262 kts 26°
2026-04-25 23:05 45.12094 8.46352 10054 ft 262 kts 26°
2026-04-25 23:06 45.13719 8.47514 9725 ft 261 kts 26°
2026-04-25 23:06 45.15331 8.48668 9460 ft 257 kts 26°
2026-04-25 23:06 45.16918 8.49807 9166 ft 255 kts 26°
2026-04-25 23:06 45.18480 8.50928 8842 ft 254 kts 26°
2026-04-25 23:07 45.20063 8.52064 8518 ft 253 kts 26°
2026-04-25 23:07 45.21712 8.52789 8068 ft 251 kts
2026-04-25 23:07 45.23437 8.52443 7640 ft 251 kts 348°
2026-04-25 23:07 45.25154 8.51947 7309 ft 251 kts 349°
2026-04-25 23:08 45.26842 8.51480 7034 ft 248 kts 350°
2026-04-25 23:08 45.28541 8.51010 6675 ft 250 kts 349°
2026-04-25 23:08 45.30254 8.50635 6289 ft 248 kts
2026-04-25 23:08 45.31897 8.51310 5855 ft 249 kts 34°
2026-04-25 23:09 45.33066 8.53099 5535 ft 248 kts 60°
2026-04-25 23:09 45.33654 8.55386 5247 ft 247 kts 75°
2026-04-25 23:09 45.33986 8.57772 5069 ft 241 kts 78°
2026-04-25 23:09 45.34285 8.60097 5016 ft 240 kts 77°
2026-04-25 23:10 45.34546 8.62467 5003 ft 245 kts 88°
2026-04-25 23:10 45.34143 8.64802 4991 ft 254 kts 120°
2026-04-25 23:10 45.32855 8.66577 4785 ft 260 kts 155°
2026-04-25 23:10 45.31151 8.67217 4576 ft 254 kts 170°
2026-04-25 23:11 45.29409 8.67655 4348 ft 254 kts 169°
2026-04-25 23:11 45.27670 8.68122 4128 ft 254 kts 169°
2026-04-25 23:11 45.25937 8.68586 3911 ft 252 kts 169°
2026-04-25 23:11 45.24225 8.69047 3684 ft 249 kts 169°
2026-04-25 23:12 45.22531 8.69506 3446 ft 245 kts 169°
2026-04-25 23:12 45.20870 8.69960 3202 ft 241 kts 169°
2026-04-25 23:12 45.19269 8.70457 3075 ft 228 kts 159°
2026-04-25 23:12 45.18013 8.71736 3044 ft 223 kts 123°
2026-04-25 23:13 45.17475 8.73775 3027 ft 224 kts 90°
2026-04-25 23:13 45.17821 8.75882 3019 ft 221 kts 56°
2026-04-25 23:13 45.18916 8.77337 3022 ft 217 kts 23°
2026-04-25 23:13 45.20339 8.77983 3036 ft 214 kts 14°
2026-04-25 23:14 45.21790 8.78510 3032 ft 217 kts 14°
2026-04-25 23:14 45.23246 8.79031 3017 ft 220 kts 14°
2026-04-25 23:14 45.24746 8.79566 3004 ft 222 kts 13°
2026-04-25 23:14 45.26250 8.80101 2999 ft 223 kts 13°
2026-04-25 23:15 45.27751 8.80634 3033 ft 221 kts 13°
2026-04-25 23:15 45.29241 8.81161 3020 ft 221 kts 13°
2026-04-25 23:15 45.30737 8.81688 2995 ft 219 kts 11°
2026-04-25 23:15 45.32232 8.81716 3005 ft 215 kts 351°
2026-04-25 23:16 45.33686 8.81355 2994 ft 207 kts 350°
2026-04-25 23:16 45.35060 8.81015 2986 ft 192 kts 349°
2026-04-25 23:16 45.36344 8.80679 2976 ft 188 kts 349°
2026-04-25 23:16 45.37623 8.80334 2996 ft 186 kts 348°
2026-04-25 23:17 45.38897 8.79987 2993 ft 187 kts 348°
2026-04-25 23:17 45.40176 8.79637 2998 ft 187 kts 348°
2026-04-25 23:17 45.41456 8.79286 3001 ft 187 kts 348°
2026-04-25 23:17 45.42712 8.78941 2984 ft 178 kts 348°
2026-04-25 23:18 45.43888 8.78619 3027 ft 168 kts 348°
2026-04-25 23:18 45.45030 8.78305 3017 ft 166 kts 348°
2026-04-25 23:18 45.46169 8.77992 3032 ft 167 kts 348°
2026-04-25 23:18 45.47316 8.77677 3035 ft 169 kts 348°
2026-04-25 23:19 45.48480 8.77357 3040 ft 171 kts 348°
2026-04-25 23:19 45.49654 8.77034 3037 ft 172 kts 348°
2026-04-25 23:19 45.50832 8.76710 2858 ft 172 kts 348°
2026-04-25 23:19 45.51971 8.76397 2650 ft 165 kts 348°
2026-04-25 23:20 45.53080 8.76091 2434 ft 160 kts 348°
2026-04-25 23:20 45.54158 8.75794 2236 ft 156 kts 348°
2026-04-25 23:20 45.55234 8.75497 2028 ft 160 kts 348°
2026-04-25 23:20 45.56328 8.75196 1814 ft 160 kts 347°
2026-04-25 23:21 45.57415 8.74894 1581 ft 158 kts 347°
2026-04-25 23:21 45.58496 8.74584 1368 ft 159 kts 348°
2026-04-25 23:21 45.59573 8.74290 1151 ft 157 kts 348°
2026-04-25 23:21 45.60659 8.74002 988 ft 156 kts 349°
2026-04-25 23:22 45.61690 8.73717 771 ft 148 kts 349°
2026-04-25 23:22 45.62604 8.73467 751 ft 111 kts 349°
2026-04-25 23:22 45.63179 8.73307 745 ft 58 kts 349°
2026-04-25 23:23 45.63718 8.73070 750 ft 32 kts 321°
2026-04-25 23:23 45.63828 8.72888 752 ft 21 kts 304°
2026-04-25 23:23 45.63911 8.72714 753 ft 21 kts 303°
2026-04-25 23:23 45.63950 8.72521 752 ft 20 kts 263°
2026-04-25 23:24 45.63927 8.72320 756 ft 20 kts 260°
2026-04-25 23:24 45.63914 8.72117 748 ft 22 kts 267°
2026-04-25 23:24 45.63902 8.71943 752 ft 12 kts 261°
2026-04-25 23:24 45.63874 8.71833 752 ft 12 kts 230°
2026-04-25 23:25 45.63796 8.71824 752 ft 12 kts 170°
2026-04-25 23:25 45.63716 8.71845 754 ft 12 kts 169°
2026-04-25 23:25 45.63636 8.71868 755 ft 12 kts 168°
2026-04-25 23:25 45.63583 8.71883 756 ft 12 kts 168°
2026-04-25 23:26 45.63471 8.71915 753 ft 15 kts 168°
2026-04-25 23:26 45.63362 8.71945 755 ft 16 kts 172°
2026-04-25 23:26 45.63300 8.71840 752 ft 16 kts 258°
2026-04-25 23:26 45.63278 8.71687 757 ft 16 kts 259°
2026-04-25 23:27 45.63259 8.71545 752 ft 11 kts 259°
2026-04-25 23:27 45.63220 8.71480 753 ft 8 kts 200°
2026-04-25 23:27 45.63193 8.71466 753 ft 2 kts 199°
2026-04-25 23:27 45.63179 8.71459 753 ft 0 kts 199°
2026-04-25 23:28 45.63178 8.71458 753 ft 0 kts 199°